Wetterdaten: Mittwoch, 26.05.2021
Datum Zeit Temp. Aussen Temp. o. S. Temp +5cm Feuchte Auss Luftdruck Regen Sonnenschein Regendauer Solar Windben Empfang
26.05.2021 00:00 9,9 C 9,4 C 7,8 C 91 % 1015,0 hPa 0,0 l/m 0 min 0 min 0 W/m 6,4 km/h (2 Bft) 95,65 %
26.05.2021 00:02 9,9 C 9,4 C 7,8 C 91 % 1015,1 hPa 0,0 l/m 0 min 0 min 0 W/m 12,9 km/h (3 Bft) 97,56 %
26.05.2021 00:04 9,9 C 9,4 C 7,8 C 90 % 1015,0 hPa 0,0 l/m 0 min 0 min 0 W/m 6,4 km/h (2 Bft) 97,87 %
26.05.2021 00:08 9,9 C 9,4 C 7,8 C 90 % 1015,0 hPa 0,0 l/m 0 min 0 min 0 W/m 16,1 km/h (3 Bft) 96,81 %
26.05.2021 00:10 10,0 C 9,4 C 7,8 C 90 % 1015,0 hPa 0,0 l/m 0 min 0 min 0 W/m 12,9 km/h (3 Bft) 97,83 %
26.05.2021 00:12 9,9 C 9,4 C 7,8 C 90 % 1015,0 hPa 0,0 l/m 0 min 0 min 0 W/m 12,9 km/h (3 Bft) 95,74 %
26.05.2021 00:14 9,9 C 9,4 C 7,8 C 90 % 1015,0 hPa 0,0 l/m 0 min 0 min 0 W/m 6,4 km/h (2 Bft) 93,62 %
26.05.2021 00:16 9,9 C 9,4 C 7,8 C 89 % 1015,0 hPa 0,0 l/m 0 min 0 min 0 W/m 12,9 km/h (3 Bft) 97,87 %
26.05.2021 00:18 9,9 C 9,4 C 7,8 C 89 % 1014,9 hPa 0,0 l/m 0 min 0 min 0 W/m 16,1 km/h (3 Bft) 93,62 %
26.05.2021 00:20 9,9 C 9,4 C 7,8 C 89 % 1015,0 hPa 0,0 l/m 0 min 0 min 0 W/m 19,3 km/h (3 Bft) 95,74 %
26.05.2021 00:22 10,0 C 9,4 C 7,8 C 89 % 1015,0 hPa 0,0 l/m 0 min 0 min 0 W/m 22,5 km/h (4 Bft) 97,83 %
26.05.2021 00:24 10,0 C 9,4 C 7,8 C 89 % 1014,9 hPa 0,0 l/m 0 min 0 min 0 W/m 12,9 km/h (3 Bft) 93,62 %
26.05.2021 00:26 9,9 C 9,4 C 7,8 C 89 % 1014,9 hPa 0,0 l/m 0 min 0 min 0 W/m 12,9 km/h (3 Bft) 95,74 %
26.05.2021 00:28 9,9 C 9,4 C 7,8 C 89 % 1014,9 hPa 0,0 l/m 0 min 0 min 0 W/m 9,7 km/h (2 Bft) 97,87 %
26.05.2021 00:30 9,9 C 9,4 C 7,8 C 89 % 1014,9 hPa 0,0 l/m 0 min 0 min 0 W/m 16,1 km/h (3 Bft) 95,74 %
26.05.2021 00:32 9,9 C 9,4 C 7,8 C 88 % 1014,9 hPa 0,0 l/m 0 min 0 min 0 W/m 19,3 km/h (3 Bft) 93,62 %
26.05.2021 00:34 9,9 C 9,4 C 7,8 C 88 % 1014,9 hPa 0,0 l/m 0 min 0 min 0 W/m 19,3 km/h (3 Bft) 95,65 %
26.05.2021 00:36 9,9 C 9,4 C 7,8 C 88 % 1014,8 hPa 0,0 l/m 0 min 0 min 0 W/m 16,1 km/h (3 Bft) 95,74 %
26.05.2021 00:38 9,9 C 9,4 C 7,8 C 88 % 1014,8 hPa 0,0 l/m 0 min 0 min 0 W/m 16,1 km/h (3 Bft) 95,74 %
26.05.2021 00:40 9,9 C 9,4 C 7,8 C 88 % 1014,8 hPa 0,0 l/m 0 min 0 min 0 W/m 9,7 km/h (2 Bft) 93,62 %
26.05.2021 00:42 9,9 C 9,4 C 7,8 C 88 % 1014,8 hPa 0,0 l/m 0 min 0 min 0 W/m 9,7 km/h (2 Bft) 93,62 %
26.05.2021 00:44 9,9 C 9,4 C 7,8 C 88 % 1014,8 hPa 0,0 l/m 0 min 0 min 0 W/m 9,7 km/h (2 Bft) 95,74 %
26.05.2021 00:46 9,9 C 9,4 C 7,8 C 88 % 1014,8 hPa 0,0 l/m 0 min 0 min 0 W/m 12,9 km/h (3 Bft) 95,65 %
26.05.2021 00:48 9,8 C 9,4 C 7,8 C 88 % 1014,8 hPa 0,0 l/m 0 min 0 min 0 W/m 6,4 km/h (2 Bft) 95,74 %
26.05.2021 00:50 9,8 C 9,4 C 7,8 C 88 % 1014,8 hPa 0,0 l/m 0 min 0 min 0 W/m 12,9 km/h (3 Bft) 93,62 %
26.05.2021 00:52 9,8 C 8,9 C 7,8 C 88 % 1014,7 hPa 0,0 l/m 0 min 0 min 0 W/m 16,1 km/h (3 Bft) 97,83 %
26.05.2021 00:54 9,8 C 8,9 C 7,3 C 88 % 1014,8 hPa 0,0 l/m 0 min 0 min 0 W/m 12,9 km/h (3 Bft) 95,74 %
26.05.2021 00:56 9,8 C 8,9 C 7,3 C 88 % 1014,8 hPa 0,0 l/m 0 min 0 min 0 W/m 16,1 km/h (3 Bft) 95,65 %
26.05.2021 00:58 9,7 C 8,9 C 7,3 C 88 % 1014,8 hPa 0,0 l/m 0 min 0 min 0 W/m 12,9 km/h (3 Bft) 95,74 %
26.05.2021 01:00 9,7 C 8,9 C 7,3 C 88 % 1014,8 hPa 0,0 l/m 0 min 0 min 0 W/m 12,9 km/h (3 Bft) 93,62 %
26.05.2021 01:02 9,7 C 8,9 C 7,3 C 88 % 1014,7 hPa 0,0 l/m 0 min 0 min 0 W/m 12,9 km/h (3 Bft) 91,49 %
26.05.2021 01:04 9,7 C 8,9 C 7,3 C 88 % 1014,7 hPa 0,0 l/m 0 min 0 min 0 W/m 6,4 km/h (2 Bft) 93,62 %
26.05.2021 01:06 9,7 C 8,9 C 7,3 C 88 % 1014,7 hPa 0,0 l/m 0 min 0 min 0 W/m 16,1 km/h (3 Bft) 95,74 %
26.05.2021 01:08 9,6 C 8,9 C 7,3 C 88 % 1014,7 hPa 0,0 l/m 0 min 0 min 0 W/m 9,7 km/h (2 Bft) 93,48 %
26.05.2021 01:10 9,6 C 8,9 C 7,3 C 88 % 1014,6 hPa 0,0 l/m 0 min 0 min 0 W/m 16,1 km/h (3 Bft) 95,74 %
26.05.2021 01:12 9,6 C 8,9 C 7,3 C 88 % 1014,6 hPa 0,0 l/m 0 min 0 min 0 W/m 9,7 km/h (2 Bft) 95,74 %
26.05.2021 01:14 9,6 C 8,9 C 7,3 C 88 % 1014,6 hPa 0,0 l/m 0 min 0 min 0 W/m 6,4 km/h (2 Bft) 95,74 %
26.05.2021 01:16 9,6 C 8,9 C 7,3 C 88 % 1014,6 hPa 0,0 l/m 0 min 0 min 0 W/m 12,9 km/h (3 Bft) 97,87 %
26.05.2021 01:18 9,6 C 8,9 C 7,3 C 88 % 1014,5 hPa 0,0 l/m 0 min 0 min 0 W/m 9,7 km/h (2 Bft) 91,49 %
26.05.2021 01:20 9,6 C 8,9 C 7,3 C 88 % 1014,5 hPa 0,0 l/m 0 min 0 min 0 W/m 6,4 km/h (2 Bft) 95,74 %
26.05.2021 01:22 9,6 C 8,9 C 7,3 C 88 % 1014,5 hPa 0,0 l/m 0 min 0 min 0 W/m 6,4 km/h (2 Bft) 97,83 %
26.05.2021 01:24 9,6 C 8,9 C 7,3 C 88 % 1014,5 hPa 0,0 l/m 0 min 0 min 0 W/m 19,3 km/h (3 Bft) 95,74 %
26.05.2021 01:26 9,5 C 8,9 C 7,3 C 88 % 1014,5 hPa 0,0 l/m 0 min 0 min 0 W/m 16,1 km/h (3 Bft) 97,87 %
26.05.2021 01:28 9,5 C 8,9 C 7,3 C 89 % 1014,5 hPa 0,0 l/m 0 min 0 min 0 W/m 12,9 km/h (3 Bft) 95,74 %
26.05.2021 01:30 9,5 C 8,9 C 7,3 C 89 % 1014,5 hPa 0,0 l/m 0 min 0 min 0 W/m 3,2 km/h (1 Bft) 97,87 %
26.05.2021 01:32 9,5 C 8,9 C 7,3 C 89 % 1014,5 hPa 0,0 l/m 0 min 0 min 0 W/m 6,4 km/h (2 Bft) 93,62 %
26.05.2021 01:34 9,5 C 8,9 C 7,3 C 89 % 1014,5 hPa 0,0 l/m 0 min 0 min 0 W/m 12,9 km/h (3 Bft) 97,83 %
26.05.2021 01:36 9,5 C 8,9 C 7,3 C 89 % 1014,5 hPa 0,0 l/m 0 min 0 min 0 W/m 6,4 km/h (2 Bft) 94,44 %
26.05.2021 01:38 9,5 C 8,9 C 7,3 C 89 % 1014,5 hPa 0,0 l/m 0 min 0 min 0 W/m 6,4 km/h (2 Bft) 100,00 %
26.05.2021 01:40 9,5 C 8,9 C 7,3 C 89 % 1014,4 hPa 0,0 l/m 0 min 0 min 0 W/m 3,2 km/h (1 Bft) 100,00 %
26.05.2021 01:42 9,4 C 8,9 C 7,3 C 89 % 1014,4 hPa 0,0 l/m 0 min 0 min 0 W/m 12,9 km/h (3 Bft) 100,00 %
26.05.2021 01:44 9,4 C 8,9 C 7,3 C 89 % 1014,4 hPa 0,0 l/m 0 min 0 min 0 W/m 6,4 km/h (2 Bft) 95,65 %
26.05.2021 01:46 9,4 C 8,9 C 7,3 C 89 % 1014,4 hPa 0,0 l/m 0 min 0 min 0 W/m 6,4 km/h (2 Bft) 100,00 %
26.05.2021 01:48 9,4 C 8,9 C 7,3 C 89 % 1014,4 hPa 0,0 l/m 0 min 0 min 0 W/m 12,9 km/h (3 Bft) 100,00 %
26.05.2021 01:50 9,4 C 8,9 C 7,3 C 89 % 1014,3 hPa 0,0 l/m 0 min 0 min 0 W/m 12,9 km/h (3 Bft) 100,00 %
26.05.2021 01:52 9,4 C 8,9 C 7,3 C 89 % 1014,4 hPa 0,0 l/m 0 min 0 min 0 W/m 16,1 km/h (3 Bft) 97,87 %
26.05.2021 01:54 9,4 C 8,9 C 7,3 C 89 % 1014,4 hPa 0,0 l/m 0 min 0 min 0 W/m 6,4 km/h (2 Bft) 100,00 %
26.05.2021 01:56 9,4 C 8,9 C 7,3 C 89 % 1014,3 hPa 0,0 l/m 0 min 0 min 0 W/m 9,7 km/h (2 Bft) 100,00 %
26.05.2021 01:58 9,4 C 8,9 C 7,3 C 89 % 1014,3 hPa 0,0 l/m 0 min 0 min 0 W/m 12,9 km/h (3 Bft) 100,00 %
26.05.2021 02:00 9,4 C 8,9 C 7,3 C 89 % 1014,2 hPa 0,0 l/m 0 min 0 min 0 W/m 9,7 km/h (2 Bft) 100,00 %
26.05.2021 02:02 9,3 C 8,9 C 7,3 C 89 % 1014,3 hPa 0,0 l/m 0 min 0 min 0 W/m 9,7 km/h (2 Bft) 100,00 %
26.05.2021 02:04 9,4 C 8,9 C 7,3 C 89 % 1014,2 hPa 0,0 l/m 0 min 0 min 0 W/m 9,7 km/h (2 Bft) 100,00 %
26.05.2021 02:06 9,3 C 8,9 C 7,3 C 89 % 1014,3 hPa 0,0 l/m 0 min 0 min 0 W/m 12,9 km/h (3 Bft) 100,00 %
26.05.2021 02:08 9,3 C 8,9 C 7,3 C 89 % 1014,2 hPa 0,0 l/m 0 min 0 min 0 W/m 12,9 km/h (3 Bft) 100,00 %
26.05.2021 02:10 9,3 C 8,9 C 7,3 C 89 % 1014,3 hPa 0,0 l/m 0 min 0 min 0 W/m 6,4 km/h (2 Bft) 97,87 %
26.05.2021 02:12 9,3 C 8,3 C 7,3 C 89 % 1014,2 hPa 0,0 l/m 0 min 0 min 0 W/m 9,7 km/h (2 Bft) 100,00 %
26.05.2021 02:14 9,3 C 8,3 C 7,3 C 89 % 1014,2 hPa 0,0 l/m 0 min 0 min 0 W/m 6,4 km/h (2 Bft) 100,00 %
26.05.2021 02:16 9,3 C 8,3 C 7,3 C 89 % 1014,2 hPa 0,0 l/m 0 min 0 min 0 W/m 16,1 km/h (3 Bft) 100,00 %
26.05.2021 02:18 9,3 C 8,3 C 7,3 C 89 % 1014,1 hPa 0,0 l/m 0 min 0 min 0 W/m 25,7 km/h (4 Bft) 100,00 %
26.05.2021 02:20 9,3 C 8,3 C 7,3 C 89 % 1014,1 hPa 0,0 l/m 0 min 0 min 0 W/m 12,9 km/h (3 Bft) 100,00 %
26.05.2021 02:22 9,3 C 8,3 C 7,3 C 89 % 1014,1 hPa 0,0 l/m 0 min 0 min 0 W/m 9,7 km/h (2 Bft) 100,00 %
26.05.2021 02:24 9,3 C 8,3 C 7,3 C 90 % 1014,1 hPa 0,0 l/m 0 min 0 min 0 W/m 12,9 km/h (3 Bft) 100,00 %
26.05.2021 02:26 9,3 C 8,3 C 7,3 C 90 % 1014,0 hPa 0,0 l/m 0 min 0 min 0 W/m 12,9 km/h (3 Bft) 100,00 %
26.05.2021 02:28 9,3 C 8,3 C 7,3 C 90 % 1014,1 hPa 0,0 l/m 0 min 0 min 0 W/m 12,9 km/h (3 Bft) 100,00 %
26.05.2021 02:30 9,3 C 8,3 C 7,3 C 90 % 1014,1 hPa 0,0 l/m 0 min 0 min 0 W/m 12,9 km/h (3 Bft) 100,00 %
26.05.2021 02:32 9,3 C 8,3 C 7,3 C 90 % 1014,0 hPa 0,0 l/m 0 min 0 min 0 W/m 16,1 km/h (3 Bft) 100,00 %
26.05.2021 02:34 9,2 C 8,3 C 7,3 C 90 % 1014,0 hPa 0,0 l/m 0 min 0 min 0 W/m 16,1 km/h (3 Bft) 100,00 %
26.05.2021 02:36 9,2 C 8,3 C 7,3 C 90 % 1014,0 hPa 0,0 l/m 0 min 0 min 0 W/m 12,9 km/h (3 Bft) 100,00 %
26.05.2021 02:38 9,2 C 8,3 C 7,3 C 90 % 1014,0 hPa 0,0 l/m 0 min 0 min 0 W/m 12,9 km/h (3 Bft) 100,00 %
26.05.2021 02:40 9,2 C 8,3 C 7,3 C 90 % 1014,0 hPa 0,0 l/m 0 min 0 min 0 W/m 25,7 km/h (4 Bft) 100,00 %
26.05.2021 02:42 9,2 C 8,3 C 7,3 C 90 % 1014,0 hPa 0,0 l/m 0 min 0 min 0 W/m 12,9 km/h (3 Bft) 100,00 %
26.05.2021 02:44 9,2 C 8,3 C 7,3 C 90 % 1013,9 hPa 0,0 l/m 0 min 0 min 0 W/m 16,1 km/h (3 Bft) 100,00 %
26.05.2021 02:46 9,2 C 8,3 C 7,3 C 90 % 1013,9 hPa 0,0 l/m 0 min 0 min 0 W/m 16,1 km/h (3 Bft) 100,00 %
26.05.2021 02:48 9,2 C 8,3 C 7,3 C 90 % 1013,9 hPa 0,0 l/m 0 min 0 min 0 W/m 19,3 km/h (3 Bft) 100,00 %
26.05.2021 02:50 9,2 C 8,3 C 7,3 C 90 % 1013,9 hPa 0,0 l/m 0 min 0 min 0 W/m 19,3 km/h (3 Bft) 97,87 %
26.05.2021 02:52 9,2 C 8,3 C 7,3 C 90 % 1013,9 hPa 0,0 l/m 0 min 0 min 0 W/m 19,3 km/h (3 Bft) 97,87 %
26.05.2021 02:54 9,2 C 8,3 C 7,3 C 90 % 1013,9 hPa 0,0 l/m 0 min 0 min 0 W/m 16,1 km/h (3 Bft) 100,00 %
26.05.2021 02:56 9,2 C 8,3 C 6,7 C 90 % 1013,9 hPa 0,0 l/m 0 min 0 min 0 W/m 16,1 km/h (3 Bft) 100,00 %
26.05.2021 02:58 9,2 C 8,3 C 6,7 C 90 % 1013,8 hPa 0,0 l/m 0 min 0 min 0 W/m 16,1 km/h (3 Bft) 100,00 %
26.05.2021 03:00 9,2 C 8,3 C 6,7 C 90 % 1013,7 hPa 0,0 l/m 0 min 0 min 0 W/m 12,9 km/h (3 Bft) 97,87 %
26.05.2021 03:02 9,1 C 8,3 C 6,7 C 90 % 1013,7 hPa 0,0 l/m 0 min 0 min 0 W/m 9,7 km/h (2 Bft) 100,00 %
26.05.2021 03:04 9,1 C 8,3 C 6,7 C 90 % 1013,7 hPa 0,0 l/m 0 min 0 min 0 W/m 16,1 km/h (3 Bft) 100,00 %
26.05.2021 03:06 9,1 C 8,3 C 6,7 C 91 % 1013,7 hPa 0,0 l/m 0 min 0 min 0 W/m 9,7 km/h (2 Bft) 100,00 %
26.05.2021 03:08 9,1 C 8,3 C 6,7 C 91 % 1013,7 hPa 0,0 l/m 0 min 0 min 0 W/m 19,3 km/h (3 Bft) 100,00 %
26.05.2021 03:10 9,1 C 8,3 C 6,7 C 91 % 1013,7 hPa 0,0 l/m 0 min 0 min 0 W/m 16,1 km/h (3 Bft) 97,87 %
26.05.2021 03:12 9,1 C 8,3 C 6,7 C 91 % 1013,7 hPa 0,0 l/m 0 min 0 min 0 W/m 19,3 km/h (3 Bft) 97,87 %
26.05.2021 03:14 9,1 C 8,3 C 6,7 C 91 % 1013,6 hPa 0,0 l/m 0 min 0 min 0 W/m 12,9 km/h (3 Bft) 97,87 %
26.05.2021 03:16 9,1 C 8,3 C 6,7 C 91 % 1013,6 hPa 0,0 l/m 0 min 0 min 0 W/m 12,9 km/h (3 Bft) 95,74 %
26.05.2021 03:18 9,0 C 8,3 C 6,7 C 91 % 1013,6 hPa 0,0 l/m 0 min 0 min 0 W/m 19,3 km/h (3 Bft) 97,83 %
26.05.2021 03:20 9,0 C 8,3 C 6,7 C 91 % 1013,5 hPa 0,0 l/m 0 min 0 min 0 W/m 19,3 km/h (3 Bft) 97,87 %
26.05.2021 03:22 9,0 C 8,3 C 6,7 C 91 % 1013,6 hPa 0,0 l/m 0 min 0 min 0 W/m 25,7 km/h (4 Bft) 97,87 %
26.05.2021 03:24 9,0 C 8,3 C 6,7 C 91 % 1013,5 hPa 0,0 l/m 0 min 0 min 0 W/m 12,9 km/h (3 Bft) 97,87 %
26.05.2021 03:26 9,0 C 8,3 C 6,7 C 91 % 1013,5 hPa 0,0 l/m 0 min 0 min 0 W/m 19,3 km/h (3 Bft) 97,87 %
26.05.2021 03:28 9,0 C 8,3 C 6,7 C 91 % 1013,5 hPa 0,0 l/m 0 min 0 min 0 W/m 29,0 km/h (5 Bft) 97,87 %
26.05.2021 03:30 9,0 C 8,3 C 6,7 C 91 % 1013,5 hPa 0,0 l/m 0 min 0 min 0 W/m 16,1 km/h (3 Bft) 97,83 %
26.05.2021 03:32 9,0 C 8,3 C 6,7 C 91 % 1013,5 hPa 0,0 l/m 0 min 0 min 0 W/m 22,5 km/h (4 Bft) 97,87 %
26.05.2021 03:34 9,0 C 8,3 C 6,7 C 91 % 1013,4 hPa 0,0 l/m 0 min 0 min 0 W/m 16,1 km/h (3 Bft) 97,87 %
26.05.2021 03:36 9,0 C 8,3 C 6,7 C 91 % 1013,4 hPa 0,0 l/m 0 min 0 min 0 W/m 9,7 km/h (2 Bft) 97,87 %
26.05.2021 03:38 9,0 C 8,3 C 6,7 C 91 % 1013,4 hPa 0,0 l/m 0 min 0 min 0 W/m 16,1 km/h (3 Bft) 95,74 %
26.05.2021 03:40 9,0 C 8,3 C 6,7 C 91 % 1013,3 hPa 0,0 l/m 0 min 0 min 0 W/m 12,9 km/h (3 Bft) 97,87 %
26.05.2021 03:42 9,0 C 8,3 C 6,7 C 91 % 1013,4 hPa 0,0 l/m 0 min 0 min 0 W/m 16,1 km/h (3 Bft) 97,83 %
26.05.2021 03:44 9,0 C 8,3 C 6,7 C 91 % 1013,3 hPa 0,0 l/m 0 min 0 min 0 W/m 19,3 km/h (3 Bft) 97,87 %
26.05.2021 03:46 9,0 C 8,3 C 6,7 C 91 % 1013,3 hPa 0,0 l/m 0 min 0 min 0 W/m 12,9 km/h (3 Bft) 95,74 %
26.05.2021 03:48 9,0 C 8,3 C 6,7 C 91 % 1013,3 hPa 0,0 l/m 0 min 0 min 0 W/m 19,3 km/h (3 Bft) 97,87 %
26.05.2021 03:50 9,0 C 8,3 C 6,7 C 91 % 1013,2 hPa 0,0 l/m 0 min 0 min 0 W/m 12,9 km/h (3 Bft) 97,87 %
26.05.2021 03:52 9,0 C 8,3 C 6,7 C 91 % 1013,2 hPa 0,0 l/m 0 min 0 min 0 W/m 16,1 km/h (3 Bft) 95,74 %
26.05.2021 03:54 9,0 C 8,3 C 6,7 C 91 % 1013,2 hPa 0,0 l/m 0 min 0 min 0 W/m 19,3 km/h (3 Bft) 95,65 %
26.05.2021 03:56 9,0 C 8,3 C 6,7 C 91 % 1013,2 hPa 0,0 l/m 0 min 0 min 0 W/m 12,9 km/h (3 Bft) 95,74 %
26.05.2021 03:58 9,0 C 8,3 C 6,7 C 91 % 1013,2 hPa 0,0 l/m 0 min 0 min 0 W/m 19,3 km/h (3 Bft) 97,87 %
26.05.2021 04:00 9,0 C 8,3 C 6,7 C 91 % 1013,2 hPa 0,0 l/m 0 min 0 min 0 W/m 16,1 km/h (3 Bft) 97,87 %
26.05.2021 04:02 9,0 C 8,3 C 6,7 C 91 % 1013,2 hPa 0,0 l/m 0 min 0 min 0 W/m 9,7 km/h (2 Bft) 100,00 %
26.05.2021 04:04 9,0 C 8,3 C 6,7 C 91 % 1013,2 hPa 0,0 l/m 0 min 0 min 0 W/m 16,1 km/h (3 Bft) 100,00 %
26.05.2021 04:06 9,0 C 8,3 C 6,7 C 91 % 1013,2 hPa 0,0 l/m 0 min 0 min 0 W/m 12,9 km/h (3 Bft) 95,65 %
26.05.2021 04:08 9,0 C 8,3 C 6,7 C 91 % 1013,2 hPa 0,0 l/m 0 min 0 min 0 W/m 16,1 km/h (3 Bft) 97,87 %
26.05.2021 04:10 9,0 C 8,3 C 6,7 C 91 % 1013,2 hPa 0,0 l/m 0 min 0 min 0 W/m 16,1 km/h (3 Bft) 93,62 %
26.05.2021 04:12 9,0 C 8,3 C 6,7 C 91 % 1013,3 hPa 0,0 l/m 0 min 0 min 0 W/m 12,9 km/h (3 Bft) 95,74 %
26.05.2021 04:14 9,0 C 8,3 C 6,7 C 91 % 1013,3 hPa 0,0 l/m 0 min 0 min 0 W/m 12,9 km/h (3 Bft) 93,62 %
26.05.2021 04:16 9,0 C 8,3 C 6,7 C 91 % 1013,2 hPa 0,0 l/m 0 min 0 min 0 W/m 16,1 km/h (3 Bft) 97,56 %
26.05.2021 04:18 9,0 C 8,3 C 7,3 C 91 % 1013,3 hPa 0,0 l/m 0 min 0 min 0 W/m 16,1 km/h (3 Bft) 97,87 %
26.05.2021 04:20 9,1 C 8,3 C 7,3 C 91 % 1013,1 hPa 0,0 l/m 0 min 0 min 0 W/m 12,9 km/h (3 Bft) 95,65 %
26.05.2021 04:22 9,1 C 8,3 C 7,3 C 91 % 1013,2 hPa 0,0 l/m 0 min 0 min 0 W/m 12,9 km/h (3 Bft) 97,87 %
26.05.2021 04:24 9,1 C 8,3 C 7,3 C 91 % 1013,2 hPa 0,0 l/m 0 min 0 min 0 W/m 22,5 km/h (4 Bft) 97,87 %
26.05.2021 04:26 9,1 C 8,3 C 7,3 C 91 % 1013,2 hPa 0,0 l/m 0 min 0 min 0 W/m 16,1 km/h (3 Bft) 97,87 %
26.05.2021 04:28 9,1 C 8,3 C 7,3 C 91 % 1013,2 hPa 0,0 l/m 0 min 0 min 0 W/m 12,9 km/h (3 Bft) 97,87 %
26.05.2021 04:30 9,1 C 8,9 C 7,3 C 91 % 1013,1 hPa 0,0 l/m 0 min 0 min 0 W/m 22,5 km/h (4 Bft) 95,74 %
26.05.2021 04:32 9,2 C 8,9 C 7,3 C 91 % 1013,1 hPa 0,0 l/m 0 min 0 min 0 W/m 16,1 km/h (3 Bft) 98,08 %
26.05.2021 04:34 9,2 C 8,9 C 7,3 C 91 % 1013,1 hPa 0,0 l/m 0 min 0 min 0 W/m 19,3 km/h (3 Bft) 97,87 %
26.05.2021 04:36 9,2 C 8,9 C 7,3 C 91 % 1013,1 hPa 0,0 l/m 0 min 0 min 0 W/m 12,9 km/h (3 Bft) 97,87 %
26.05.2021 04:38 9,2 C 8,9 C 7,3 C 91 % 1013,0 hPa 0,0 l/m 0 min 0 min 0 W/m 16,1 km/h (3 Bft) 97,87 %
26.05.2021 04:40 9,3 C 8,9 C 7,3 C 91 % 1013,0 hPa 0,0 l/m 0 min 0 min 0 W/m 16,1 km/h (3 Bft) 97,87 %
26.05.2021 04:42 9,3 C 8,9 C 7,3 C 91 % 1013,0 hPa 0,0 l/m 0 min 0 min 0 W/m 19,3 km/h (3 Bft) 100,00 %
26.05.2021 04:44 9,3 C 8,9 C 7,3 C 91 % 1012,9 hPa 0,0 l/m 0 min 0 min 0 W/m 19,3 km/h (3 Bft) 97,87 %
26.05.2021 04:46 9,3 C 8,9 C 7,3 C 91 % 1012,9 hPa 0,0 l/m 0 min 0 min 0 W/m 12,9 km/h (3 Bft) 100,00 %
26.05.2021 04:48 9,3 C 8,9 C 7,3 C 91 % 1012,9 hPa 0,0 l/m 0 min 0 min 0 W/m 16,1 km/h (3 Bft) 100,00 %
26.05.2021 04:50 9,3 C 8,9 C 7,3 C 91 % 1012,9 hPa 0,0 l/m 0 min 0 min 0 W/m 22,5 km/h (4 Bft) 95,74 %
26.05.2021 04:52 9,3 C 8,9 C 7,3 C 91 % 1012,9 hPa 0,0 l/m 0 min 0 min 0 W/m 19,3 km/h (3 Bft) 95,65 %
26.05.2021 04:54 9,3 C 8,9 C 7,3 C 91 % 1012,9 hPa 0,0 l/m 0 min 0 min 0 W/m 12,9 km/h (3 Bft) 95,74 %
26.05.2021 04:56 9,3 C 8,9 C 7,3 C 91 % 1012,9 hPa 0,0 l/m 0 min 0 min 0 W/m 16,1 km/h (3 Bft) 95,74 %
26.05.2021 04:58 9,3 C 8,9 C 7,3 C 91 % 1012,9 hPa 0,0 l/m 0 min 0 min 0 W/m 19,3 km/h (3 Bft) 97,87 %
26.05.2021 05:00 9,3 C 8,3 C 7,3 C 91 % 1012,9 hPa 0,0 l/m 0 min 0 min 0 W/m 16,1 km/h (3 Bft) 97,87 %
26.05.2021 05:02 9,3 C 8,3 C 7,3 C 91 % 1012,9 hPa 0,0 l/m 0 min 0 min 0 W/m 6,4 km/h (2 Bft) 97,87 %
26.05.2021 05:04 9,3 C 8,3 C 7,3 C 91 % 1012,8 hPa 0,0 l/m 0 min 0 min 0 W/m 16,1 km/h (3 Bft) 97,83 %
26.05.2021 05:06 9,2 C 8,3 C 7,3 C 91 % 1012,9 hPa 0,0 l/m 0 min 0 min 0 W/m 12,9 km/h (3 Bft) 97,87 %
26.05.2021 05:08 9,2 C 8,3 C 7,3 C 91 % 1012,8 hPa 0,0 l/m 0 min 0 min 0 W/m 12,9 km/h (3 Bft) 97,87 %
26.05.2021 05:10 9,2 C 8,3 C 7,3 C 91 % 1012,9 hPa 0,0 l/m 0 min 0 min 0 W/m 16,1 km/h (3 Bft) 97,87 %
26.05.2021 05:12 9,1 C 8,3 C 7,3 C 91 % 1012,8 hPa 0,0 l/m 0 min 0 min 0 W/m 22,5 km/h (4 Bft) 95,74 %
26.05.2021 05:14 9,1 C 8,3 C 6,7 C 91 % 1012,8 hPa 0,0 l/m 0 min 0 min 0 W/m 16,1 km/h (3 Bft) 97,87 %
26.05.2021 05:16 9,1 C 8,3 C 6,7 C 91 % 1012,8 hPa 0,0 l/m 0 min 0 min 0 W/m 22,5 km/h (4 Bft) 93,62 %
26.05.2021 05:18 9,1 C 8,3 C 6,7 C 91 % 1012,8 hPa 0,0 l/m 0 min 0 min 0 W/m 19,3 km/h (3 Bft) 97,83 %
26.05.2021 05:20 9,0 C 8,3 C 6,7 C 91 % 1012,8 hPa 0,0 l/m 0 min 0 min 0 W/m 12,9 km/h (3 Bft) 95,74 %
26.05.2021 05:22 9,0 C 8,3 C 6,7 C 91 % 1012,8 hPa 0,0 l/m 0 min 0 min 0 W/m 12,9 km/h (3 Bft) 97,87 %
26.05.2021 05:24 9,0 C 8,3 C 6,7 C 91 % 1012,8 hPa 0,0 l/m 0 min 0 min 0 W/m 9,7 km/h (2 Bft) 97,87 %
26.05.2021 05:26 9,0 C 8,3 C 6,7 C 91 % 1012,8 hPa 0,0 l/m 0 min 0 min 0 W/m 19,3 km/h (3 Bft) 97,87 %
26.05.2021 05:28 9,0 C 8,3 C 6,7 C 91 % 1012,8 hPa 0,0 l/m 0 min 0 min 0 W/m 22,5 km/h (4 Bft) 91,30 %
26.05.2021 05:30 9,0 C 8,3 C 6,7 C 92 % 1012,8 hPa 0,0 l/m 0 min 0 min 0 W/m 16,1 km/h (3 Bft) 95,74 %
26.05.2021 05:32 8,9 C 8,3 C 6,7 C 92 % 1012,8 hPa 0,0 l/m 0 min 0 min 0 W/m 9,7 km/h (2 Bft) 95,74 %
26.05.2021 05:34 8,9 C 8,3 C 6,7 C 92 % 1012,8 hPa 0,0 l/m 0 min 0 min 0 W/m 12,9 km/h (3 Bft) 97,87 %
26.05.2021 05:36 8,9 C 8,3 C 6,7 C 92 % 1012,8 hPa 0,0 l/m 0 min 0 min 0 W/m 22,5 km/h (4 Bft) 93,62 %
26.05.2021 05:38 8,9 C 8,3 C 6,7 C 92 % 1012,7 hPa 0,0 l/m 0 min 0 min 2 W/m 16,1 km/h (3 Bft) 97,87 %
26.05.2021 05:40 8,9 C 8,3 C 6,7 C 92 % 1012,7 hPa 0,0 l/m 0 min 0 min 5 W/m 6,4 km/h (2 Bft) 97,83 %
26.05.2021 05:42 8,9 C 8,3 C 6,7 C 92 % 1012,7 hPa 0,0 l/m 0 min 0 min 5 W/m 19,3 km/h (3 Bft) 95,74 %
26.05.2021 05:44 8,9 C 8,3 C 6,7 C 92 % 1012,7 hPa 0,0 l/m 0 min 0 min 5 W/m 19,3 km/h (3 Bft) 97,87 %
26.05.2021 05:46 8,9 C 8,3 C 6,7 C 92 % 1012,8 hPa 0,0 l/m 0 min 0 min 7 W/m 9,7 km/h (2 Bft) 95,74 %
26.05.2021 05:48 9,0 C 8,3 C 6,7 C 92 % 1012,7 hPa 0,0 l/m 0 min 0 min 7 W/m 12,9 km/h (3 Bft) 97,87 %
26.05.2021 05:50 9,0 C 8,3 C 6,7 C 92 % 1012,7 hPa 0,0 l/m 0 min 0 min 7 W/m 9,7 km/h (2 Bft) 95,74 %
26.05.2021 05:52 9,0 C 8,3 C 6,7 C 92 % 1012,7 hPa 0,0 l/m 0 min 0 min 7 W/m 6,4 km/h (2 Bft) 95,65 %
26.05.2021 05:54 9,0 C 8,3 C 7,3 C 92 % 1012,6 hPa 0,0 l/m 0 min 0 min 7 W/m 6,4 km/h (2 Bft) 95,74 %
26.05.2021 05:56 9,0 C 8,3 C 7,3 C 92 % 1012,7 hPa 0,0 l/m 0 min 0 min 7 W/m 6,4 km/h (2 Bft) 93,62 %
26.05.2021 05:58 9,0 C 8,3 C 7,3 C 92 % 1012,6 hPa 0,0 l/m 0 min 0 min 9 W/m 16,1 km/h (3 Bft) 95,74 %
26.05.2021 06:00 9,0 C 8,3 C 7,3 C 92 % 1012,6 hPa 0,0 l/m 0 min 0 min 9 W/m 12,9 km/h (3 Bft) 93,62 %
26.05.2021 06:02 9,0 C 8,3 C 7,3 C 92 % 1012,6 hPa 0,0 l/m 0 min 0 min 9 W/m 3,2 km/h (1 Bft) 95,74 %
26.05.2021 06:04 9,0 C 8,3 C 7,3 C 92 % 1012,6 hPa 0,0 l/m 0 min 0 min 9 W/m 16,1 km/h (3 Bft) 95,12 %
26.05.2021 06:08 9,0 C 8,3 C 7,3 C 92 % 1012,6 hPa 0,0 l/m 0 min 0 min 10 W/m 16,1 km/h (3 Bft) 94,95 %
26.05.2021 06:10 9,0 C 8,3 C 7,3 C 92 % 1012,6 hPa 0,0 l/m 0 min 0 min 12 W/m 16,1 km/h (3 Bft) 95,74 %
26.05.2021 06:12 9,0 C 8,3 C 7,3 C 92 % 1012,6 hPa 0,0 l/m 0 min 0 min 12 W/m 6,4 km/h (2 Bft) 95,74 %
26.05.2021 06:14 9,0 C 8,3 C 7,3 C 92 % 1012,5 hPa 0,0 l/m 0 min 0 min 15 W/m 12,9 km/h (3 Bft) 95,74 %
26.05.2021 06:16 9,1 C 8,3 C 7,3 C 92 % 1012,6 hPa 0,0 l/m 0 min 0 min 18 W/m 12,9 km/h (3 Bft) 95,65 %
26.05.2021 06:18 9,1 C 8,3 C 7,3 C 92 % 1012,6 hPa 0,0 l/m 0 min 0 min 19 W/m 16,1 km/h (3 Bft) 95,74 %
26.05.2021 06:20 9,1 C 8,3 C 7,3 C 92 % 1012,6 hPa 0,0 l/m 0 min 0 min 19 W/m 12,9 km/h (3 Bft) 95,12 %
26.05.2021 06:22 9,1 C 8,9 C 7,3 C 92 % 1012,5 hPa 0,0 l/m 0 min 0 min 19 W/m 9,7 km/h (2 Bft) 96,23 %
26.05.2021 06:24 9,1 C 8,9 C 7,3 C 91 % 1012,5 hPa 0,0 l/m 0 min 0 min 22 W/m 9,7 km/h (2 Bft) 97,87 %
26.05.2021 06:26 9,1 C 8,9 C 7,3 C 91 % 1012,5 hPa 0,0 l/m 0 min 0 min 25 W/m 12,9 km/h (3 Bft) 100,00 %
26.05.2021 06:28 9,1 C 8,9 C 7,3 C 91 % 1012,5 hPa 0,0 l/m 0 min 0 min 26 W/m 9,7 km/h (2 Bft) 95,65 %
26.05.2021 06:30 9,1 C 8,9 C 7,3 C 91 % 1012,5 hPa 0,0 l/m 0 min 0 min 26 W/m 6,4 km/h (2 Bft) 97,87 %
26.05.2021 06:32 9,1 C 8,9 C 7,3 C 91 % 1012,4 hPa 0,0 l/m 0 min 0 min 28 W/m 6,4 km/h (2 Bft) 95,83 %
26.05.2021 06:34 9,1 C 8,9 C 7,3 C 91 % 1012,4 hPa 0,0 l/m 0 min 0 min 32 W/m 12,9 km/h (3 Bft) 97,87 %
26.05.2021 06:36 9,1 C 8,9 C 7,3 C 91 % 1012,4 hPa 0,0 l/m 0 min 0 min 39 W/m 9,7 km/h (2 Bft) 100,00 %
26.05.2021 06:38 9,1 C 8,9 C 7,3 C 91 % 1012,4 hPa 0,0 l/m 0 min 0 min 43 W/m 9,7 km/h (2 Bft) 95,74 %
26.05.2021 06:40 9,1 C 8,9 C 7,3 C 91 % 1012,4 hPa 0,0 l/m 0 min 0 min 44 W/m 9,7 km/h (2 Bft) 97,83 %
26.05.2021 06:42 9,1 C 8,9 C 7,3 C 91 % 1012,4 hPa 0,0 l/m 0 min 0 min 46 W/m 12,9 km/h (3 Bft) 97,87 %
26.05.2021 06:44 9,2 C 8,9 C 7,3 C 92 % 1012,4 hPa 0,0 l/m 0 min 0 min 52 W/m 3,2 km/h (1 Bft) 100,00 %
26.05.2021 06:46 9,2 C 8,9 C 7,3 C 92 % 1012,4 hPa 0,0 l/m 0 min 0 min 56 W/m 6,4 km/h (2 Bft) 95,74 %
26.05.2021 06:48 9,2 C 8,9 C 7,3 C 92 % 1012,5 hPa 0,0 l/m 0 min 0 min 60 W/m 25,7 km/h (4 Bft) 95,74 %
26.05.2021 06:50 9,2 C 8,9 C 7,3 C 92 % 1012,4 hPa 0,0 l/m 0 min 0 min 63 W/m 6,4 km/h (2 Bft) 97,87 %
26.05.2021 06:52 9,3 C 8,9 C 7,3 C 92 % 1012,4 hPa 0,0 l/m 0 min 0 min 63 W/m 12,9 km/h (3 Bft) 97,83 %
26.05.2021 06:54 9,3 C 8,9 C 7,3 C 92 % 1012,4 hPa 0,0 l/m 0 min 0 min 65 W/m 9,7 km/h (2 Bft) 97,87 %
26.05.2021 06:56 9,3 C 8,9 C 7,3 C 92 % 1012,4 hPa 0,0 l/m 0 min 0 min 68 W/m 16,1 km/h (3 Bft) 93,62 %
26.05.2021 06:58 9,3 C 8,9 C 7,3 C 92 % 1012,4 hPa 0,0 l/m 0 min 0 min 66 W/m 19,3 km/h (3 Bft) 97,87 %
26.05.2021 07:00 9,3 C 8,9 C 7,3 C 92 % 1012,3 hPa 0,0 l/m 0 min 0 min 65 W/m 19,3 km/h (3 Bft) 95,74 %
26.05.2021 07:02 9,3 C 8,9 C 7,3 C 92 % 1012,3 hPa 0,0 l/m 0 min 0 min 65 W/m 16,1 km/h (3 Bft) 97,83 %
26.05.2021 07:04 9,3 C 8,9 C 7,3 C 92 % 1012,4 hPa 0,0 l/m 0 min 0 min 63 W/m 16,1 km/h (3 Bft) 97,87 %
26.05.2021 07:06 9,3 C 8,9 C 7,3 C 91 % 1012,3 hPa 0,0 l/m 0 min 0 min 62 W/m 12,9 km/h (3 Bft) 97,87 %
26.05.2021 07:08 9,3 C 8,9 C 7,3 C 91 % 1012,3 hPa 0,0 l/m 0 min 0 min 62 W/m 9,7 km/h (2 Bft) 97,87 %
26.05.2021 07:10 9,3 C 8,9 C 7,8 C 91 % 1012,3 hPa 0,0 l/m 0 min 0 min 63 W/m 6,4 km/h (2 Bft) 97,87 %
26.05.2021 07:12 9,3 C 8,9 C 7,8 C 91 % 1012,3 hPa 0,0 l/m 0 min 0 min 63 W/m 16,1 km/h (3 Bft) 97,87 %
26.05.2021 07:14 9,3 C 8,9 C 7,8 C 91 % 1012,2 hPa 0,0 l/m 0 min 0 min 63 W/m 12,9 km/h (3 Bft) 97,83 %
26.05.2021 07:16 9,3 C 8,9 C 7,8 C 91 % 1012,2 hPa 0,0 l/m 0 min 0 min 65 W/m 6,4 km/h (2 Bft) 97,87 %
26.05.2021 07:18 9,4 C 8,9 C 7,8 C 91 % 1012,3 hPa 0,0 l/m 0 min 0 min 65 W/m 12,9 km/h (3 Bft) 97,87 %
26.05.2021 07:20 9,4 C 8,9 C 7,8 C 91 % 1012,2 hPa 0,0 l/m 0 min 0 min 66 W/m 12,9 km/h (3 Bft) 95,74 %
26.05.2021 07:22 9,4 C 8,9 C 7,8 C 91 % 1012,2 hPa 0,0 l/m 0 min 0 min 68 W/m 12,9 km/h (3 Bft) 97,87 %
26.05.2021 07:24 9,4 C 8,9 C 7,8 C 91 % 1012,2 hPa 0,0 l/m 0 min 0 min 71 W/m 12,9 km/h (3 Bft) 95,74 %
26.05.2021 07:26 9,4 C 8,9 C 7,8 C 91 % 1012,2 hPa 0,0 l/m 0 min 0 min 73 W/m 12,9 km/h (3 Bft) 95,65 %
26.05.2021 07:28 9,4 C 9,4 C 7,8 C 91 % 1012,2 hPa 0,0 l/m 0 min 0 min 76 W/m 9,7 km/h (2 Bft) 97,87 %
26.05.2021 07:30 9,4 C 9,4 C 7,8 C 91 % 1012,2 hPa 0,0 l/m 0 min 0 min 80 W/m 12,9 km/h (3 Bft) 97,87 %
26.05.2021 07:32 9,4 C 9,4 C 7,8 C 91 % 1012,2 hPa 0,0 l/m 0 min 0 min 85 W/m 12,9 km/h (3 Bft) 97,92 %
26.05.2021 07:34 9,4 C 9,4 C 7,8 C 91 % 1012,2 hPa 0,0 l/m 0 min 0 min 94 W/m 25,7 km/h (4 Bft) 97,87 %
26.05.2021 07:36 9,5 C 9,4 C 7,8 C 91 % 1012,2 hPa 0,0 l/m 0 min 0 min 103 W/m 6,4 km/h (2 Bft) 100,00 %
26.05.2021 07:38 9,4 C 9,4 C 7,8 C 91 % 1012,2 hPa 0,0 l/m 0 min 0 min 107 W/m 16,1 km/h (3 Bft) 100,00 %
26.05.2021 07:40 9,5 C 9,4 C 7,8 C 91 % 1012,1 hPa 0,0 l/m 0 min 0 min 105 W/m 16,1 km/h (3 Bft) 100,00 %
26.05.2021 07:42 9,5 C 9,4 C 7,8 C 91 % 1012,1 hPa 0,0 l/m 0 min 0 min 105 W/m 12,9 km/h (3 Bft) 100,00 %
26.05.2021 07:44 9,5 C 9,4 C 7,8 C 91 % 1012,2 hPa 0,0 l/m 0 min 0 min 107 W/m 12,9 km/h (3 Bft) 100,00 %
26.05.2021 07:46 9,5 C 9,4 C 7,8 C 91 % 1012,2 hPa 0,0 l/m 0 min 0 min 105 W/m 12,9 km/h (3 Bft) 100,00 %
26.05.2021 07:48 9,6 C 9,4 C 7,8 C 91 % 1012,1 hPa 0,0 l/m 0 min 0 min 109 W/m 16,1 km/h (3 Bft) 100,00 %
26.05.2021 07:50 9,6 C 9,4 C 7,8 C 91 % 1012,1 hPa 0,0 l/m 0 min 0 min 114 W/m 19,3 km/h (3 Bft) 100,00 %
26.05.2021 07:52 9,6 C 9,4 C 7,8 C 90 % 1012,1 hPa 0,0 l/m 0 min 0 min 117 W/m 19,3 km/h (3 Bft) 100,00 %
26.05.2021 07:54 9,6 C 9,4 C 7,8 C 90 % 1012,1 hPa 0,0 l/m 0 min 0 min 120 W/m 16,1 km/h (3 Bft) 97,87 %
26.05.2021 07:56 9,6 C 9,4 C 7,8 C 90 % 1012,1 hPa 0,0 l/m 0 min 0 min 127 W/m 12,9 km/h (3 Bft) 100,00 %
26.05.2021 07:58 9,6 C 9,4 C 8,4 C 90 % 1012,1 hPa 0,0 l/m 0 min 0 min 129 W/m 12,9 km/h (3 Bft) 100,00 %
26.05.2021 08:00 9,7 C 9,4 C 8,4 C 90 % 1012,2 hPa 0,0 l/m 0 min 0 min 134 W/m 19,3 km/h (3 Bft) 100,00 %
26.05.2021 08:02 9,7 C 10,0 C 8,4 C 90 % 1012,1 hPa 0,0 l/m 0 min 0 min 141 W/m 12,9 km/h (3 Bft) 97,83 %
26.05.2021 08:04 9,8 C 10,0 C 8,4 C 90 % 1012,1 hPa 0,0 l/m 0 min 0 min 146 W/m 12,9 km/h (3 Bft) 100,00 %
26.05.2021 08:06 9,8 C 10,0 C 8,4 C 90 % 1012,1 hPa 0,0 l/m 0 min 0 min 143 W/m 6,4 km/h (2 Bft) 100,00 %
26.05.2021 08:08 9,8 C 10,0 C 8,4 C 90 % 1012,1 hPa 0,0 l/m 0 min 0 min 141 W/m 12,9 km/h (3 Bft) 100,00 %
26.05.2021 08:10 9,8 C 10,0 C 8,4 C 90 % 1012,1 hPa 0,0 l/m 0 min 0 min 137 W/m 12,9 km/h (3 Bft) 100,00 %
26.05.2021 08:12 9,9 C 10,0 C 8,4 C 90 % 1012,0 hPa 0,0 l/m 0 min 0 min 135 W/m 9,7 km/h (2 Bft) 100,00 %
26.05.2021 08:14 9,9 C 10,0 C 8,4 C 90 % 1012,1 hPa 0,0 l/m 0 min 0 min 138 W/m 6,4 km/h (2 Bft) 100,00 %
26.05.2021 08:16 9,9 C 10,0 C 8,4 C 90 % 1012,0 hPa 0,0 l/m 0 min 0 min 138 W/m 9,7 km/h (2 Bft) 100,00 %
26.05.2021 08:18 9,9 C 10,0 C 8,4 C 90 % 1012,1 hPa 0,0 l/m 0 min 0 min 139 W/m 22,5 km/h (4 Bft) 100,00 %
26.05.2021 08:20 10,0 C 10,0 C 8,4 C 89 % 1012,1 hPa 0,0 l/m 0 min 0 min 143 W/m 16,1 km/h (3 Bft) 100,00 %
26.05.2021 08:22 9,9 C 10,0 C 8,4 C 89 % 1012,1 hPa 0,0 l/m 0 min 2 min 148 W/m 12,9 km/h (3 Bft) 95,74 %
26.05.2021 08:24 10,0 C 10,0 C 8,4 C 89 % 1012,0 hPa 0,0 l/m 0 min 0 min 152 W/m 6,4 km/h (2 Bft) 86,96 %
26.05.2021 08:26 10,0 C 10,0 C 8,4 C 89 % 1012,1 hPa 0,0 l/m 0 min 0 min 162 W/m 6,4 km/h (2 Bft) 93,62 %
26.05.2021 08:28 10,0 C 10,0 C 8,9 C 89 % 1012,1 hPa 0,0 l/m 0 min 0 min 164 W/m 25,7 km/h (4 Bft) 89,36 %
26.05.2021 08:30 10,0 C 10,0 C 8,4 C 89 % 1012,1 hPa 0,0 l/m 0 min 0 min 161 W/m 22,5 km/h (4 Bft) 93,62 %
26.05.2021 08:32 10,0 C 10,0 C 8,9 C 89 % 1012,1 hPa 0,0 l/m 0 min 0 min 177 W/m 12,9 km/h (3 Bft) 95,83 %
26.05.2021 08:34 10,1 C 10,6 C 8,9 C 89 % 1012,0 hPa 0,0 l/m 0 min 0 min 194 W/m 3,2 km/h (1 Bft) 100,00 %
26.05.2021 08:36 10,1 C 10,6 C 8,9 C 89 % 1012,1 hPa 0,0 l/m 0 min 0 min 209 W/m 12,9 km/h (3 Bft) 100,00 %
26.05.2021 08:38 10,1 C 10,6 C 8,9 C 89 % 1012,1 hPa 0,0 l/m 0 min 0 min 202 W/m 9,7 km/h (2 Bft) 97,87 %
26.05.2021 08:40 10,2 C 10,6 C 8,9 C 89 % 1012,1 hPa 0,0 l/m 0 min 0 min 190 W/m 9,7 km/h (2 Bft) 97,87 %
26.05.2021 08:42 10,3 C 10,6 C 8,9 C 89 % 1012,0 hPa 0,0 l/m 0 min 0 min 183 W/m 9,7 km/h (2 Bft) 97,87 %
26.05.2021 08:44 10,3 C 10,6 C 8,9 C 89 % 1012,0 hPa 0,0 l/m 0 min 0 min 189 W/m 16,1 km/h (3 Bft) 95,74 %
26.05.2021 08:46 10,4 C 10,6 C 8,9 C 89 % 1012,0 hPa 0,0 l/m 0 min 0 min 192 W/m 9,7 km/h (2 Bft) 97,87 %
26.05.2021 08:48 10,4 C 10,6 C 8,9 C 88 % 1012,0 hPa 0,0 l/m 0 min 0 min 159 W/m 16,1 km/h (3 Bft) 95,65 %
26.05.2021 08:50 10,4 C 10,6 C 8,9 C 88 % 1012,0 hPa 0,0 l/m 0 min 0 min 149 W/m 19,3 km/h (3 Bft) 97,87 %
26.05.2021 08:52 10,4 C 10,6 C 8,9 C 88 % 1012,0 hPa 0,0 l/m 0 min 0 min 156 W/m 9,7 km/h (2 Bft) 97,87 %
26.05.2021 08:54 10,4 C 10,6 C 8,9 C 88 % 1012,0 hPa 0,0 l/m 0 min 0 min 156 W/m 3,2 km/h (1 Bft) 97,87 %
26.05.2021 08:56 10,4 C 10,6 C 8,9 C 88 % 1011,9 hPa 0,0 l/m 0 min 0 min 130 W/m 12,9 km/h (3 Bft) 97,87 %
26.05.2021 08:58 10,4 C 10,6 C 8,9 C 88 % 1011,9 hPa 0,0 l/m 0 min 0 min 156 W/m 12,9 km/h (3 Bft) 97,87 %
26.05.2021 09:00 10,5 C 11,1 C 8,9 C 88 % 1012,0 hPa 0,0 l/m 0 min 0 min 210 W/m 6,4 km/h (2 Bft) 95,74 %
26.05.2021 09:02 10,5 C 11,7 C 9,5 C 88 % 1012,0 hPa 0,0 l/m 2 min 0 min 246 W/m 6,4 km/h (2 Bft) 97,83 %
26.05.2021 09:04 10,5 C 11,7 C 9,5 C 88 % 1011,9 hPa 0,0 l/m 0 min 0 min 243 W/m 6,4 km/h (2 Bft) 95,74 %
26.05.2021 09:06 10,6 C 11,7 C 9,5 C 87 % 1011,9 hPa 0,0 l/m 0 min 0 min 155 W/m 12,9 km/h (3 Bft) 95,74 %
26.05.2021 09:08 10,6 C 11,7 C 9,5 C 87 % 1011,9 hPa 0,0 l/m 0 min 0 min 162 W/m 16,1 km/h (3 Bft) 97,87 %
26.05.2021 09:10 10,6 C 11,7 C 9,5 C 87 % 1011,9 hPa 0,0 l/m 0 min 0 min 185 W/m 6,4 km/h (2 Bft) 97,87 %
26.05.2021 09:12 10,7 C 11,7 C 9,5 C 87 % 1012,0 hPa 0,0 l/m 0 min 0 min 186 W/m 16,1 km/h (3 Bft) 97,83 %
26.05.2021 09:14 10,7 C 11,1 C 9,5 C 86 % 1012,0 hPa 0,0 l/m 0 min 0 min 191 W/m 12,9 km/h (3 Bft) 97,87 %
26.05.2021 09:16 10,8 C 11,7 C 9,5 C 86 % 1011,9 hPa 0,0 l/m 0 min 0 min 219 W/m 6,4 km/h (2 Bft) 95,74 %
26.05.2021 09:18 10,8 C 11,1 C 9,5 C 86 % 1012,0 hPa 0,0 l/m 0 min 0 min 233 W/m 19,3 km/h (3 Bft) 97,87 %
26.05.2021 09:20 10,8 C 11,1 C 9,5 C 85 % 1012,0 hPa 0,0 l/m 0 min 0 min 222 W/m 22,5 km/h (4 Bft) 97,87 %
26.05.2021 09:22 10,8 C 11,1 C 9,5 C 85 % 1011,9 hPa 0,0 l/m 0 min 0 min 237 W/m 16,1 km/h (3 Bft) 97,87 %
26.05.2021 09:24 10,8 C 11,1 C 9,5 C 85 % 1012,0 hPa 0,0 l/m 0 min 0 min 216 W/m 12,9 km/h (3 Bft) 97,83 %
26.05.2021 09:26 10,8 C 11,1 C 9,5 C 85 % 1012,0 hPa 0,0 l/m 0 min 0 min 221 W/m 6,4 km/h (2 Bft) 94,74 %
26.05.2021 09:28 10,8 C 11,1 C 9,5 C 85 % 1011,9 hPa 0,0 l/m 0 min 0 min 191 W/m 6,4 km/h (2 Bft) 97,87 %
26.05.2021 09:30 10,9 C 11,1 C 9,5 C 85 % 1012,0 hPa 0,0 l/m 0 min 0 min 176 W/m 9,7 km/h (2 Bft) 96,43 %
26.05.2021 09:32 10,9 C 12,2 C 10,0 C 85 % 1011,9 hPa 0,0 l/m 0 min 0 min 197 W/m 16,1 km/h (3 Bft) 94,44 %
26.05.2021 09:34 10,9 C 12,8 C 10,6 C 85 % 1011,9 hPa 0,0 l/m 0 min 0 min 208 W/m 16,1 km/h (3 Bft) 95,83 %
26.05.2021 09:36 11,0 C 12,2 C 10,6 C 84 % 1011,8 hPa 0,0 l/m 2 min 0 min 288 W/m 19,3 km/h (3 Bft) 95,74 %
26.05.2021 09:38 11,0 C 12,2 C 10,6 C 84 % 1011,8 hPa 0,0 l/m 0 min 0 min 251 W/m 19,3 km/h (3 Bft) 94,83 %
26.05.2021 09:40 11,1 C 11,7 C 10,0 C 84 % 1011,9 hPa 0,0 l/m 0 min 0 min 223 W/m 22,5 km/h (4 Bft) 97,14 %
26.05.2021 09:42 11,1 C 11,7 C 10,0 C 84 % 1011,8 hPa 0,0 l/m 0 min 0 min 255 W/m 19,3 km/h (3 Bft) 93,62 %
26.05.2021 09:44 11,1 C 11,7 C 10,0 C 84 % 1011,8 hPa 0,0 l/m 0 min 0 min 278 W/m 19,3 km/h (3 Bft) 93,62 %
26.05.2021 09:46 11,2 C 12,2 C 11,1 C 84 % 1011,8 hPa 0,0 l/m 2 min 0 min 323 W/m 19,3 km/h (3 Bft) 95,74 %
26.05.2021 09:48 11,3 C 12,8 C 11,7 C 83 % 1011,8 hPa 0,0 l/m 2 min 0 min 323 W/m 19,3 km/h (3 Bft) 95,74 %
26.05.2021 09:50 11,3 C 12,8 C 11,1 C 83 % 1011,8 hPa 0,0 l/m 2 min 0 min 318 W/m 16,1 km/h (3 Bft) 95,65 %
26.05.2021 09:52 11,4 C 12,8 C 11,1 C 83 % 1011,8 hPa 0,0 l/m 0 min 0 min 294 W/m 12,9 km/h (3 Bft) 95,74 %
26.05.2021 09:54 11,4 C 12,8 C 11,1 C 83 % 1011,9 hPa 0,0 l/m 0 min 0 min 224 W/m 6,4 km/h (2 Bft) 95,74 %
26.05.2021 09:56 11,4 C 12,2 C 10,6 C 83 % 1011,8 hPa 0,0 l/m 0 min 0 min 197 W/m 12,9 km/h (3 Bft) 95,74 %
26.05.2021 09:58 11,5 C 12,2 C 10,6 C 83 % 1011,8 hPa 0,0 l/m 0 min 0 min 170 W/m 6,4 km/h (2 Bft) 95,74 %
26.05.2021 10:00 11,5 C 11,7 C 10,0 C 83 % 1011,8 hPa 0,0 l/m 0 min 0 min 154 W/m 12,9 km/h (3 Bft) 93,62 %
26.05.2021 10:02 11,4 C 12,2 C 10,0 C 83 % 1011,7 hPa 0,0 l/m 0 min 0 min 173 W/m 3,2 km/h (1 Bft) 91,49 %
26.05.2021 10:04 11,5 C 12,2 C 10,0 C 83 % 1011,6 hPa 0,0 l/m 0 min 0 min 206 W/m 9,7 km/h (2 Bft) 95,74 %
26.05.2021 10:06 11,5 C 12,2 C 10,6 C 84 % 1011,8 hPa 0,0 l/m 0 min 0 min 256 W/m 9,7 km/h (2 Bft) 93,62 %
26.05.2021 10:08 11,6 C 12,2 C 10,6 C 84 % 1011,7 hPa 0,0 l/m 2 min 0 min 335 W/m 6,4 km/h (2 Bft) 97,87 %
26.05.2021 10:10 11,6 C 12,2 C 10,6 C 83 % 1011,8 hPa 0,0 l/m 0 min 0 min 300 W/m 16,1 km/h (3 Bft) 100,00 %
26.05.2021 10:12 11,6 C 12,2 C 10,6 C 83 % 1011,6 hPa 0,0 l/m 0 min 0 min 264 W/m 12,9 km/h (3 Bft) 97,83 %
26.05.2021 10:14 11,6 C 12,2 C 10,6 C 82 % 1011,6 hPa 0,0 l/m 0 min 0 min 272 W/m 6,4 km/h (2 Bft) 97,87 %
26.05.2021 10:16 11,6 C 12,2 C 10,6 C 83 % 1011,6 hPa 0,0 l/m 0 min 0 min 292 W/m 12,9 km/h (3 Bft) 95,74 %
26.05.2021 10:18 11,6 C 12,8 C 11,1 C 82 % 1011,6 hPa 0,0 l/m 0 min 0 min 298 W/m 6,4 km/h (2 Bft) 97,87 %
26.05.2021 10:20 11,8 C 12,8 C 11,1 C 83 % 1011,6 hPa 0,0 l/m 0 min 0 min 303 W/m 3,2 km/h (1 Bft) 97,87 %
26.05.2021 10:22 11,8 C 12,8 C 11,1 C 83 % 1011,6 hPa 0,0 l/m 0 min 0 min 296 W/m 9,7 km/h (2 Bft) 93,62 %
26.05.2021 10:24 11,9 C 13,3 C 11,1 C 82 % 1011,6 hPa 0,0 l/m 2 min 0 min 345 W/m 6,4 km/h (2 Bft) 97,83 %
26.05.2021 10:26 11,9 C 13,3 C 12,3 C 82 % 1011,6 hPa 0,0 l/m 2 min 0 min 409 W/m 6,4 km/h (2 Bft) 97,87 %
26.05.2021 10:28 12,0 C 13,9 C 12,8 C 81 % 1011,6 hPa 0,0 l/m 2 min 0 min 427 W/m 16,1 km/h (3 Bft) 97,87 %
26.05.2021 10:30 12,0 C 13,9 C 12,8 C 80 % 1011,6 hPa 0,0 l/m 2 min 0 min 477 W/m 12,9 km/h (3 Bft) 97,87 %
26.05.2021 10:32 12,1 C 13,9 C 13,4 C 80 % 1011,5 hPa 0,0 l/m 2 min 0 min 445 W/m 16,1 km/h (3 Bft) 93,62 %
26.05.2021 10:34 12,2 C 13,9 C 12,8 C 80 % 1011,5 hPa 0,0 l/m 2 min 0 min 346 W/m 6,4 km/h (2 Bft) 97,87 %
26.05.2021 10:36 12,3 C 13,3 C 12,3 C 80 % 1011,5 hPa 0,0 l/m 0 min 0 min 231 W/m 12,9 km/h (3 Bft) 97,83 %
26.05.2021 10:38 12,2 C 12,8 C 11,7 C 79 % 1011,4 hPa 0,0 l/m 0 min 0 min 201 W/m 12,9 km/h (3 Bft) 97,87 %
26.05.2021 10:40 12,1 C 12,8 C 11,1 C 79 % 1011,4 hPa 0,0 l/m 0 min 0 min 182 W/m 6,4 km/h (2 Bft) 95,74 %
26.05.2021 10:42 12,1 C 12,2 C 10,6 C 80 % 1011,5 hPa 0,0 l/m 0 min 0 min 161 W/m 6,4 km/h (2 Bft) 100,00 %
26.05.2021 10:44 12,0 C 12,2 C 10,6 C 80 % 1011,4 hPa 0,0 l/m 0 min 0 min 170 W/m 6,4 km/h (2 Bft) 100,00 %
26.05.2021 10:46 12,0 C 12,2 C 11,7 C 80 % 1011,4 hPa 0,0 l/m 0 min 0 min 178 W/m 3,2 km/h (1 Bft) 100,00 %
26.05.2021 10:48 12,1 C 13,9 C 12,8 C 81 % 1011,3 hPa 0,0 l/m 2 min 0 min 768 W/m 6,4 km/h (2 Bft) 100,00 %
26.05.2021 10:50 12,3 C 15,0 C 12,8 C 81 % 1011,3 hPa 0,0 l/m 2 min 0 min 1002 W/m 12,9 km/h (3 Bft) 95,65 %
26.05.2021 10:52 12,4 C 15,0 C 13,4 C 80 % 1011,2 hPa 0,0 l/m 2 min 0 min 868 W/m 6,4 km/h (2 Bft) 100,00 %
26.05.2021 10:54 12,5 C 15,0 C 13,4 C 79 % 1011,3 hPa 0,0 l/m 2 min 0 min 372 W/m 9,7 km/h (2 Bft) 97,87 %
26.05.2021 10:56 12,6 C 14,4 C 12,8 C 78 % 1011,3 hPa 0,0 l/m 0 min 0 min 325 W/m 6,4 km/h (2 Bft) 97,87 %
26.05.2021 10:58 12,7 C 14,4 C 12,8 C 78 % 1011,3 hPa 0,0 l/m 0 min 0 min 325 W/m 9,7 km/h (2 Bft) 97,87 %
26.05.2021 11:00 12,6 C 13,3 C 11,7 C 77 % 1011,3 hPa 0,0 l/m 0 min 0 min 231 W/m 9,7 km/h (2 Bft) 95,65 %
26.05.2021 11:02 12,6 C 13,9 C 11,7 C 77 % 1011,3 hPa 0,0 l/m 0 min 0 min 217 W/m 6,4 km/h (2 Bft) 100,00 %
26.05.2021 11:04 12,6 C 13,3 C 11,7 C 77 % 1011,2 hPa 0,0 l/m 0 min 0 min 239 W/m 6,4 km/h (2 Bft) 100,00 %
26.05.2021 11:06 12,6 C 13,3 C 11,7 C 78 % 1011,3 hPa 0,0 l/m 0 min 0 min 285 W/m 6,4 km/h (2 Bft) 100,00 %
26.05.2021 11:08 12,6 C 12,8 C 11,1 C 78 % 1011,2 hPa 0,0 l/m 0 min 0 min 271 W/m 6,4 km/h (2 Bft) 100,00 %
26.05.2021 11:10 12,6 C 12,8 C 11,1 C 77 % 1011,2 hPa 0,0 l/m 0 min 0 min 253 W/m 6,4 km/h (2 Bft) 100,00 %
26.05.2021 11:12 12,6 C 12,8 C 11,1 C 77 % 1011,3 hPa 0,0 l/m 0 min 0 min 256 W/m 12,9 km/h (3 Bft) 100,00 %
26.05.2021 11:14 12,6 C 12,8 C 11,1 C 78 % 1011,2 hPa 0,0 l/m 0 min 0 min 285 W/m 6,4 km/h (2 Bft) 100,00 %
26.05.2021 11:16 12,6 C 12,8 C 11,1 C 79 % 1011,2 hPa 0,0 l/m 0 min 0 min 235 W/m 6,4 km/h (2 Bft) 97,87 %
26.05.2021 11:18 12,6 C 12,8 C 11,1 C 79 % 1011,2 hPa 0,0 l/m 0 min 0 min 253 W/m 6,4 km/h (2 Bft) 100,00 %
26.05.2021 11:20 12,6 C 12,8 C 11,1 C 79 % 1011,2 hPa 0,0 l/m 0 min 0 min 274 W/m 22,5 km/h (4 Bft) 100,00 %
26.05.2021 11:22 12,6 C 13,3 C 11,1 C 78 % 1011,1 hPa 0,0 l/m 0 min 0 min 289 W/m 3,2 km/h (1 Bft) 100,00 %
26.05.2021 11:24 12,6 C 13,3 C 11,1 C 78 % 1011,1 hPa 0,0 l/m 0 min 0 min 335 W/m 6,4 km/h (2 Bft) 100,00 %
26.05.2021 11:26 12,6 C 13,3 C 11,1 C 78 % 1011,2 hPa 0,0 l/m 0 min 0 min 348 W/m 12,9 km/h (3 Bft) 100,00 %
26.05.2021 11:28 12,7 C 13,3 C 11,7 C 79 % 1011,1 hPa 0,0 l/m 0 min 0 min 374 W/m 0,0 km/h (0 Bft) 100,00 %
26.05.2021 11:30 12,8 C 13,9 C 12,3 C 79 % 1011,1 hPa 0,0 l/m 0 min 0 min 378 W/m 3,2 km/h (1 Bft) 100,00 %
26.05.2021 11:32 12,9 C 13,9 C 12,3 C 78 % 1011,1 hPa 0,0 l/m 0 min 0 min 259 W/m 12,9 km/h (3 Bft) 100,00 %
26.05.2021 11:34 12,9 C 13,9 C 11,7 C 78 % 1011,1 hPa 0,0 l/m 0 min 0 min 248 W/m 12,9 km/h (3 Bft) 100,00 %
26.05.2021 11:36 12,9 C 13,9 C 11,7 C 78 % 1011,0 hPa 0,0 l/m 0 min 0 min 247 W/m 0,0 km/h (0 Bft) 100,00 %
26.05.2021 11:38 12,9 C 13,3 C 11,1 C 77 % 1011,0 hPa 0,0 l/m 0 min 0 min 257 W/m 0,0 km/h (0 Bft) 100,00 %
26.05.2021 11:40 12,8 C 13,3 C 11,1 C 77 % 1011,0 hPa 0,0 l/m 0 min 0 min 284 W/m 9,7 km/h (2 Bft) 100,00 %
26.05.2021 11:42 12,8 C 13,3 C 11,1 C 78 % 1011,0 hPa 0,0 l/m 0 min 0 min 339 W/m 6,4 km/h (2 Bft) 97,87 %
26.05.2021 11:44 12,8 C 13,9 C 11,7 C 78 % 1011,0 hPa 0,0 l/m 2 min 0 min 421 W/m 3,2 km/h (1 Bft) 100,00 %
26.05.2021 11:46 12,8 C 13,9 C 11,7 C 78 % 1011,0 hPa 0,0 l/m 2 min 0 min 463 W/m 0,0 km/h (0 Bft) 97,83 %
26.05.2021 11:48 12,9 C 14,4 C 12,3 C 78 % 1011,0 hPa 0,0 l/m 2 min 0 min 461 W/m 0,0 km/h (0 Bft) 100,00 %
26.05.2021 11:50 13,0 C 14,4 C 12,8 C 78 % 1011,0 hPa 0,0 l/m 2 min 0 min 484 W/m 9,7 km/h (2 Bft) 95,74 %
26.05.2021 11:52 13,0 C 14,4 C 12,8 C 78 % 1010,9 hPa 0,0 l/m 2 min 0 min 447 W/m 16,1 km/h (3 Bft) 95,12 %
26.05.2021 11:54 13,1 C 14,4 C 12,8 C 77 % 1010,9 hPa 0,0 l/m 2 min 0 min 448 W/m 12,9 km/h (3 Bft) 96,23 %
26.05.2021 11:56 13,1 C 14,4 C 12,8 C 77 % 1010,9 hPa 0,0 l/m 2 min 0 min 439 W/m 6,4 km/h (2 Bft) 97,87 %
26.05.2021 11:58 13,2 C 14,4 C 12,8 C 76 % 1011,0 hPa 0,0 l/m 2 min 0 min 406 W/m 16,1 km/h (3 Bft) 95,65 %
26.05.2021 12:00 13,3 C 14,4 C 12,8 C 76 % 1010,9 hPa 0,0 l/m 0 min 0 min 376 W/m 12,9 km/h (3 Bft) 97,87 %
26.05.2021 12:02 13,3 C 14,4 C 12,3 C 76 % 1010,9 hPa 0,0 l/m 0 min 0 min 387 W/m 3,2 km/h (1 Bft) 35,48 %
26.05.2021 12:04 13,3 C 14,4 C 12,8 C 76 % 1011,0 hPa 0,0 l/m 2 min 0 min 459 W/m 19,3 km/h (3 Bft) 95,12 %
26.05.2021 12:06 13,4 C 15,0 C 13,4 C 75 % 1011,0 hPa 0,0 l/m 2 min 0 min 601 W/m 16,1 km/h (3 Bft) 97,87 %
26.05.2021 12:08 13,4 C 15,6 C 14,5 C 76 % 1011,0 hPa 0,0 l/m 2 min 0 min 661 W/m 9,7 km/h (2 Bft) 97,83 %
26.05.2021 12:10 13,6 C 16,1 C 15,6 C 76 % 1011,0 hPa 0,0 l/m 2 min 0 min 660 W/m 12,9 km/h (3 Bft) 97,87 %
26.05.2021 12:12 13,8 C 15,6 C 15,0 C 75 % 1011,1 hPa 0,0 l/m 2 min 0 min 528 W/m 16,1 km/h (3 Bft) 97,87 %
26.05.2021 12:14 13,7 C 15,0 C 13,9 C 74 % 1010,9 hPa 0,0 l/m 0 min 0 min 309 W/m 16,1 km/h (3 Bft) 97,87 %
26.05.2021 12:16 13,6 C 14,4 C 13,9 C 73 % 1010,9 hPa 0,0 l/m 0 min 0 min 361 W/m 16,1 km/h (3 Bft) 93,62 %
26.05.2021 12:18 13,7 C 15,6 C 17,3 C 74 % 1011,0 hPa 0,0 l/m 2 min 0 min 798 W/m 6,4 km/h (2 Bft) 97,87 %
26.05.2021 12:20 13,9 C 16,7 C 20,0 C 76 % 1010,9 hPa 0,0 l/m 2 min 0 min 1119 W/m 12,9 km/h (3 Bft) 97,87 %
26.05.2021 12:22 14,2 C 17,2 C 21,7 C 76 % 1011,0 hPa 0,0 l/m 2 min 0 min 1136 W/m 12,9 km/h (3 Bft) 97,83 %
26.05.2021 12:24 14,2 C 17,2 C 22,3 C 75 % 1010,9 hPa 0,0 l/m 2 min 0 min 838 W/m 19,3 km/h (3 Bft) 95,74 %
26.05.2021 12:26 14,4 C 17,2 C 20,6 C 74 % 1010,9 hPa 0,0 l/m 2 min 0 min 991 W/m 12,9 km/h (3 Bft) 95,74 %
26.05.2021 12:28 14,4 C 16,7 C 18,4 C 72 % 1010,9 hPa 0,0 l/m 2 min 0 min 572 W/m 12,9 km/h (3 Bft) 100,00 %
26.05.2021 12:30 14,4 C 15,6 C 16,7 C 72 % 1011,0 hPa 0,0 l/m 0 min 0 min 376 W/m 12,9 km/h (3 Bft) 97,87 %
26.05.2021 12:32 14,4 C 15,6 C 15,6 C 72 % 1010,9 hPa 0,0 l/m 0 min 0 min 332 W/m 12,9 km/h (3 Bft) 100,00 %
26.05.2021 12:34 14,2 C 15,0 C 15,6 C 72 % 1010,9 hPa 0,0 l/m 0 min 0 min 408 W/m 19,3 km/h (3 Bft) 97,87 %
26.05.2021 12:36 14,2 C 15,0 C 14,5 C 73 % 1010,9 hPa 0,0 l/m 0 min 0 min 387 W/m 12,9 km/h (3 Bft) 100,00 %
26.05.2021 12:38 14,1 C 15,0 C 15,6 C 73 % 1010,9 hPa 0,0 l/m 0 min 0 min 348 W/m 9,7 km/h (2 Bft) 95,74 %
26.05.2021 12:40 14,2 C 15,6 C 16,1 C 73 % 1010,9 hPa 0,0 l/m 2 min 0 min 549 W/m 12,9 km/h (3 Bft) 100,00 %
26.05.2021 12:42 14,2 C 16,1 C 17,3 C 73 % 1011,0 hPa 0,0 l/m 2 min 0 min 630 W/m 12,9 km/h (3 Bft) 97,87 %
26.05.2021 12:44 14,3 C 16,1 C 17,3 C 74 % 1010,9 hPa 0,0 l/m 2 min 0 min 671 W/m 16,1 km/h (3 Bft) 100,00 %
26.05.2021 12:46 14,4 C 16,7 C 18,4 C 73 % 1010,9 hPa 0,0 l/m 2 min 0 min 508 W/m 16,1 km/h (3 Bft) 100,00 %
26.05.2021 12:48 14,6 C 16,7 C 18,9 C 73 % 1010,9 hPa 0,0 l/m 2 min 0 min 768 W/m 9,7 km/h (2 Bft) 100,00 %
26.05.2021 12:50 14,8 C 16,7 C 18,4 C 73 % 1011,0 hPa 0,0 l/m 2 min 0 min 673 W/m 22,5 km/h (4 Bft) 97,87 %
26.05.2021 12:52 14,9 C 16,7 C 17,3 C 73 % 1010,9 hPa 0,0 l/m 2 min 0 min 554 W/m 16,1 km/h (3 Bft) 97,87 %
26.05.2021 12:54 14,8 C 16,1 C 17,3 C 71 % 1011,0 hPa 0,0 l/m 2 min 0 min 567 W/m 19,3 km/h (3 Bft) 100,00 %
26.05.2021 12:56 14,8 C 16,7 C 20,0 C 71 % 1010,9 hPa 0,0 l/m 2 min 0 min 596 W/m 12,9 km/h (3 Bft) 100,00 %
26.05.2021 12:58 14,8 C 16,7 C 18,9 C 71 % 1011,0 hPa 0,0 l/m 2 min 0 min 519 W/m 25,7 km/h (4 Bft) 100,00 %
26.05.2021 13:00 14,8 C 16,1 C 16,7 C 71 % 1011,0 hPa 0,0 l/m 0 min 0 min 384 W/m 29,0 km/h (5 Bft) 100,00 %
26.05.2021 13:02 14,8 C 16,1 C 16,1 C 71 % 1010,9 hPa 0,0 l/m 0 min 0 min 412 W/m 19,3 km/h (3 Bft) 93,62 %
26.05.2021 13:04 14,8 C 16,1 C 16,1 C 71 % 1011,0 hPa 0,0 l/m 2 min 0 min 422 W/m 12,9 km/h (3 Bft) 95,74 %
26.05.2021 13:06 14,8 C 16,1 C 15,6 C 71 % 1010,9 hPa 0,0 l/m 2 min 0 min 431 W/m 19,3 km/h (3 Bft) 97,87 %
26.05.2021 13:08 14,8 C 16,1 C 15,0 C 73 % 1011,0 hPa 0,0 l/m 2 min 0 min 476 W/m 16,1 km/h (3 Bft) 97,83 %
26.05.2021 13:10 14,8 C 16,1 C 15,0 C 73 % 1010,9 hPa 0,0 l/m 2 min 0 min 538 W/m 22,5 km/h (4 Bft) 95,74 %
26.05.2021 13:12 14,8 C 16,7 C 16,7 C 72 % 1010,9 hPa 0,0 l/m 2 min 0 min 579 W/m 16,1 km/h (3 Bft) 95,74 %
26.05.2021 13:14 14,9 C 17,2 C 17,8 C 73 % 1011,0 hPa 0,0 l/m 2 min 0 min 596 W/m 12,9 km/h (3 Bft) 95,74 %
26.05.2021 13:16 15,0 C 16,7 C 16,7 C 73 % 1011,0 hPa 0,0 l/m 2 min 0 min 520 W/m 9,7 km/h (2 Bft) 95,74 %
26.05.2021 13:18 15,1 C 16,1 C 15,6 C 72 % 1011,0 hPa 0,0 l/m 0 min 0 min 374 W/m 16,1 km/h (3 Bft) 95,74 %
26.05.2021 13:20 15,1 C 16,1 C 15,0 C 72 % 1011,0 hPa 0,0 l/m 0 min 0 min 345 W/m 12,9 km/h (3 Bft) 95,65 %
26.05.2021 13:22 15,0 C 15,6 C 13,9 C 72 % 1011,0 hPa 0,0 l/m 0 min 0 min 308 W/m 12,9 km/h (3 Bft) 95,74 %
26.05.2021 13:24 14,9 C 15,0 C 13,4 C 71 % 1011,0 hPa 0,0 l/m 0 min 0 min 308 W/m 12,9 km/h (3 Bft) 95,74 %
26.05.2021 13:26 14,8 C 15,0 C 13,4 C 72 % 1011,0 hPa 0,0 l/m 0 min 0 min 361 W/m 16,1 km/h (3 Bft) 95,74 %
26.05.2021 13:28 14,8 C 15,0 C 13,4 C 73 % 1011,0 hPa 0,0 l/m 0 min 0 min 315 W/m 6,4 km/h (2 Bft) 95,74 %
26.05.2021 13:30 14,7 C 15,0 C 13,4 C 73 % 1011,0 hPa 0,0 l/m 0 min 0 min 244 W/m 6,4 km/h (2 Bft) 93,62 %
26.05.2021 13:32 14,7 C 15,0 C 12,8 C 74 % 1011,0 hPa 0,0 l/m 0 min 0 min 228 W/m 6,4 km/h (2 Bft) 93,48 %
26.05.2021 13:34 14,8 C 15,6 C 13,4 C 74 % 1011,1 hPa 0,0 l/m 0 min 0 min 270 W/m 6,4 km/h (2 Bft) 95,74 %
26.05.2021 13:36 14,7 C 15,6 C 13,4 C 73 % 1011,0 hPa 0,0 l/m 0 min 0 min 389 W/m 6,4 km/h (2 Bft) 93,62 %
26.05.2021 13:38 14,6 C 15,6 C 13,4 C 72 % 1011,1 hPa 0,0 l/m 2 min 0 min 517 W/m 29,0 km/h (5 Bft) 95,74 %
26.05.2021 13:40 14,6 C 15,6 C 13,9 C 73 % 1011,1 hPa 0,0 l/m 2 min 0 min 516 W/m 19,3 km/h (3 Bft) 95,74 %
26.05.2021 13:42 14,6 C 16,1 C 14,5 C 73 % 1011,1 hPa 0,0 l/m 2 min 0 min 536 W/m 12,9 km/h (3 Bft) 95,74 %
26.05.2021 13:44 14,7 C 16,1 C 14,5 C 74 % 1011,1 hPa 0,0 l/m 2 min 0 min 588 W/m 9,7 km/h (2 Bft) 95,65 %
26.05.2021 13:46 14,8 C 16,7 C 15,0 C 74 % 1010,9 hPa 0,0 l/m 2 min 0 min 560 W/m 19,3 km/h (3 Bft) 95,74 %
26.05.2021 13:48 14,9 C 16,1 C 15,0 C 73 % 1011,0 hPa 0,0 l/m 2 min 0 min 444 W/m 12,9 km/h (3 Bft) 93,62 %
26.05.2021 13:50 14,9 C 15,6 C 13,9 C 72 % 1011,0 hPa 0,0 l/m 0 min 0 min 297 W/m 16,1 km/h (3 Bft) 95,74 %
26.05.2021 13:52 14,8 C 15,0 C 13,4 C 71 % 1011,0 hPa 0,0 l/m 0 min 0 min 209 W/m 16,1 km/h (3 Bft) 95,74 %
26.05.2021 13:54 14,7 C 15,0 C 12,8 C 71 % 1011,1 hPa 0,0 l/m 0 min 0 min 184 W/m 6,4 km/h (2 Bft) 95,74 %
26.05.2021 13:56 14,6 C 15,0 C 12,8 C 73 % 1011,0 hPa 0,0 l/m 0 min 0 min 235 W/m 9,7 km/h (2 Bft) 97,83 %
26.05.2021 13:58 14,6 C 15,0 C 12,8 C 73 % 1011,0 hPa 0,0 l/m 0 min 0 min 276 W/m 6,4 km/h (2 Bft) 97,87 %
26.05.2021 14:00 14,6 C 14,4 C 12,3 C 74 % 1011,1 hPa 0,0 l/m 0 min 0 min 249 W/m 12,9 km/h (3 Bft) 97,87 %
26.05.2021 14:02 14,6 C 14,4 C 12,3 C 74 % 1011,1 hPa 0,0 l/m 0 min 0 min 207 W/m 9,7 km/h (2 Bft) 97,87 %
26.05.2021 14:04 14,5 C 14,4 C 12,3 C 75 % 1011,1 hPa 0,0 l/m 0 min 0 min 227 W/m 19,3 km/h (3 Bft) 95,74 %
26.05.2021 14:06 14,5 C 15,0 C 12,3 C 76 % 1011,1 hPa 0,0 l/m 0 min 0 min 299 W/m 16,1 km/h (3 Bft) 97,87 %
26.05.2021 14:08 14,5 C 15,6 C 12,8 C 77 % 1011,1 hPa 0,0 l/m 0 min 0 min 299 W/m 19,3 km/h (3 Bft) 95,65 %
26.05.2021 14:10 14,6 C 16,1 C 12,8 C 78 % 1011,2 hPa 0,0 l/m 2 min 0 min 623 W/m 19,3 km/h (3 Bft) 97,87 %
26.05.2021 14:12 14,5 C 15,6 C 12,3 C 78 % 1011,2 hPa 0,0 l/m 2 min 2 min 768 W/m 19,3 km/h (3 Bft) 95,74 %
26.05.2021 14:14 14,5 C 15,0 C 12,3 C 79 % 1011,1 hPa 0,0 l/m 2 min 0 min 415 W/m 12,9 km/h (3 Bft) 91,49 %
26.05.2021 14:16 14,3 C 15,0 C 12,3 C 78 % 1011,1 hPa 0,0 l/m 0 min 0 min 269 W/m 12,9 km/h (3 Bft) 93,62 %
26.05.2021 14:18 14,2 C 14,4 C 12,3 C 77 % 1011,1 hPa 0,0 l/m 0 min 0 min 276 W/m 9,7 km/h (2 Bft) 93,62 %
26.05.2021 14:20 14,2 C 14,4 C 12,3 C 77 % 1011,1 hPa 0,0 l/m 0 min 0 min 306 W/m 6,4 km/h (2 Bft) 95,65 %
26.05.2021 14:22 14,2 C 14,4 C 12,3 C 77 % 1011,1 hPa 0,0 l/m 0 min 0 min 360 W/m 12,9 km/h (3 Bft) 95,74 %
26.05.2021 14:24 14,2 C 15,0 C 12,3 C 78 % 1011,1 hPa 0,0 l/m 0 min 0 min 327 W/m 12,9 km/h (3 Bft) 93,62 %
26.05.2021 14:26 14,2 C 15,0 C 12,8 C 78 % 1011,1 hPa 0,0 l/m 0 min 0 min 373 W/m 9,7 km/h (2 Bft) 97,87 %
26.05.2021 14:28 14,2 C 15,0 C 12,8 C 78 % 1011,0 hPa 0,0 l/m 2 min 0 min 424 W/m 9,7 km/h (2 Bft) 95,74 %
26.05.2021 14:30 14,3 C 16,7 C 13,4 C 78 % 1011,1 hPa 0,0 l/m 2 min 0 min 703 W/m 16,1 km/h (3 Bft) 97,87 %
26.05.2021 14:32 14,5 C 17,2 C 13,4 C 77 % 1011,1 hPa 0,0 l/m 2 min 0 min 1035 W/m 16,1 km/h (3 Bft) 95,65 %
26.05.2021 14:34 14,8 C 18,3 C 13,4 C 76 % 1011,0 hPa 0,0 l/m 2 min 0 min 974 W/m 12,9 km/h (3 Bft) 95,74 %
26.05.2021 14:36 15,0 C 18,9 C 13,4 C 76 % 1011,0 hPa 0,0 l/m 2 min 0 min 959 W/m 16,1 km/h (3 Bft) 97,87 %
26.05.2021 14:38 15,3 C 18,9 C 13,4 C 75 % 1011,1 hPa 0,0 l/m 2 min 0 min 960 W/m 19,3 km/h (3 Bft) 97,87 %
26.05.2021 14:40 15,5 C 19,4 C 13,4 C 74 % 1011,0 hPa 0,0 l/m 2 min 0 min 1002 W/m 12,9 km/h (3 Bft) 97,87 %
26.05.2021 14:42 15,8 C 20,0 C 13,9 C 74 % 1011,0 hPa 0,0 l/m 2 min 0 min 1010 W/m 12,9 km/h (3 Bft) 95,74 %
26.05.2021 14:44 16,1 C 20,6 C 13,9 C 74 % 1011,0 hPa 0,0 l/m 2 min 0 min 1022 W/m 16,1 km/h (3 Bft) 97,83 %
26.05.2021 14:46 16,4 C 19,4 C 13,9 C 71 % 1011,0 hPa 0,0 l/m 2 min 0 min 1046 W/m 16,1 km/h (3 Bft) 95,74 %
26.05.2021 14:48 16,5 C 17,8 C 13,9 C 69 % 1011,0 hPa 0,0 l/m 2 min 0 min 425 W/m 16,1 km/h (3 Bft) 97,87 %
26.05.2021 14:50 16,4 C 17,2 C 13,9 C 69 % 1011,0 hPa 0,0 l/m 0 min 0 min 216 W/m 12,9 km/h (3 Bft) 97,87 %
26.05.2021 14:52 16,3 C 16,1 C 13,4 C 69 % 1011,0 hPa 0,0 l/m 0 min 0 min 188 W/m 19,3 km/h (3 Bft) 93,62 %
26.05.2021 14:54 16,0 C 16,1 C 13,4 C 69 % 1011,0 hPa 0,0 l/m 0 min 0 min 170 W/m 16,1 km/h (3 Bft) 100,00 %
26.05.2021 14:56 15,8 C 15,6 C 12,8 C 71 % 1011,0 hPa 0,0 l/m 0 min 2 min 208 W/m 16,1 km/h (3 Bft) 100,00 %
26.05.2021 14:58 15,6 C 15,6 C 12,3 C 73 % 1010,9 hPa 0,0 l/m 0 min 0 min 312 W/m 12,9 km/h (3 Bft) 100,00 %
26.05.2021 15:00 15,5 C 16,1 C 12,3 C 75 % 1011,0 hPa 0,0 l/m 0 min 0 min 374 W/m 16,1 km/h (3 Bft) 100,00 %
26.05.2021 15:02 15,5 C 17,2 C 12,8 C 76 % 1011,0 hPa 0,0 l/m 2 min 0 min 469 W/m 16,1 km/h (3 Bft) 97,87 %
26.05.2021 15:04 15,6 C 17,2 C 13,4 C 76 % 1011,0 hPa 0,0 l/m 2 min 0 min 816 W/m 12,9 km/h (3 Bft) 97,87 %
26.05.2021 15:06 15,6 C 17,8 C 13,4 C 75 % 1011,0 hPa 0,0 l/m 2 min 0 min 736 W/m 9,7 km/h (2 Bft) 100,00 %
26.05.2021 15:08 15,7 C 18,3 C 13,9 C 75 % 1010,9 hPa 0,0 l/m 2 min 0 min 533 W/m 19,3 km/h (3 Bft) 100,00 %
26.05.2021 15:10 15,9 C 18,9 C 13,9 C 74 % 1010,9 hPa 0,0 l/m 2 min 0 min 982 W/m 6,4 km/h (2 Bft) 100,00 %
26.05.2021 15:12 16,0 C 18,9 C 13,9 C 73 % 1010,9 hPa 0,0 l/m 2 min 0 min 956 W/m 19,3 km/h (3 Bft) 97,87 %
26.05.2021 15:14 16,1 C 19,4 C 13,9 C 71 % 1010,8 hPa 0,0 l/m 2 min 0 min 945 W/m 16,1 km/h (3 Bft) 100,00 %
26.05.2021 15:16 16,3 C 19,4 C 13,9 C 70 % 1010,8 hPa 0,0 l/m 2 min 0 min 925 W/m 19,3 km/h (3 Bft) 100,00 %
26.05.2021 15:18 16,4 C 19,4 C 13,9 C 70 % 1010,8 hPa 0,0 l/m 2 min 0 min 891 W/m 19,3 km/h (3 Bft) 100,00 %
26.05.2021 15:20 16,5 C 19,4 C 13,9 C 69 % 1010,9 hPa 0,0 l/m 2 min 0 min 960 W/m 16,1 km/h (3 Bft) 100,00 %
26.05.2021 15:22 16,6 C 18,9 C 13,9 C 69 % 1010,8 hPa 0,0 l/m 2 min 0 min 850 W/m 16,1 km/h (3 Bft) 95,74 %
26.05.2021 15:24 16,7 C 18,3 C 13,9 C 68 % 1010,7 hPa 0,0 l/m 2 min 0 min 440 W/m 16,1 km/h (3 Bft) 100,00 %
26.05.2021 15:26 16,7 C 17,8 C 13,9 C 67 % 1010,8 hPa 0,0 l/m 0 min 0 min 322 W/m 16,1 km/h (3 Bft) 97,87 %
26.05.2021 15:28 16,6 C 17,8 C 13,9 C 68 % 1010,8 hPa 0,0 l/m 0 min 0 min 359 W/m 19,3 km/h (3 Bft) 100,00 %
26.05.2021 15:30 16,5 C 17,8 C 13,9 C 67 % 1010,9 hPa 0,0 l/m 0 min 0 min 380 W/m 22,5 km/h (4 Bft) 97,83 %
26.05.2021 15:32 16,5 C 17,8 C 13,9 C 67 % 1010,8 hPa 0,0 l/m 2 min 0 min 670 W/m 19,3 km/h (3 Bft) 100,00 %
26.05.2021 15:34 16,4 C 17,2 C 13,9 C 66 % 1010,8 hPa 0,0 l/m 2 min 0 min 580 W/m 16,1 km/h (3 Bft) 100,00 %
26.05.2021 15:36 16,3 C 16,7 C 13,9 C 66 % 1011,0 hPa 0,0 l/m 0 min 0 min 360 W/m 22,5 km/h (4 Bft) 100,00 %
26.05.2021 15:38 16,1 C 16,7 C 13,9 C 68 % 1011,1 hPa 0,0 l/m 2 min 0 min 477 W/m 19,3 km/h (3 Bft) 100,00 %
26.05.2021 15:40 16,2 C 17,2 C 13,9 C 69 % 1011,1 hPa 0,0 l/m 2 min 0 min 496 W/m 16,1 km/h (3 Bft) 100,00 %
26.05.2021 15:42 16,4 C 18,3 C 14,5 C 70 % 1011,3 hPa 0,0 l/m 2 min 0 min 509 W/m 22,5 km/h (4 Bft) 100,00 %
26.05.2021 15:44 16,6 C 19,4 C 14,5 C 68 % 1011,1 hPa 0,0 l/m 2 min 0 min 768 W/m 12,9 km/h (3 Bft) 100,00 %
26.05.2021 15:46 16,9 C 18,9 C 14,5 C 68 % 1011,3 hPa 0,0 l/m 2 min 0 min 888 W/m 19,3 km/h (3 Bft) 97,87 %
26.05.2021 15:48 16,8 C 17,8 C 14,5 C 68 % 1011,3 hPa 0,0 l/m 2 min 0 min 503 W/m 38,6 km/h (5 Bft) 100,00 %
26.05.2021 15:53 16,5 C 17,8 C 13,9 C 68 % 1011,3 hPa 0,0 l/m 5 min 0 min 747 W/m 22,5 km/h (4 Bft) 97,01 %
26.05.2021 15:54 16,5 C 17,8 C 13,9 C 69 % 1011,3 hPa 0,0 l/m 0 min 0 min 317 W/m 9,7 km/h (2 Bft) 100,00 %
26.05.2021 15:56 16,3 C 17,2 C 13,4 C 70 % 1011,3 hPa 0,0 l/m 0 min 0 min 318 W/m 19,3 km/h (3 Bft) 100,00 %
26.05.2021 15:58 16,2 C 16,1 C 13,4 C 68 % 1011,4 hPa 0,0 l/m 0 min 0 min 282 W/m 25,7 km/h (4 Bft) 97,87 %
26.05.2021 16:00 15,9 C 15,6 C 12,8 C 69 % 1011,3 hPa 0,0 l/m 0 min 0 min 253 W/m 22,5 km/h (4 Bft) 100,00 %
26.05.2021 16:02 15,8 C 15,0 C 12,3 C 69 % 1011,4 hPa 0,0 l/m 0 min 0 min 214 W/m 12,9 km/h (3 Bft) 97,92 %
26.05.2021 16:04 15,4 C 14,4 C 12,3 C 70 % 1011,3 hPa 0,0 l/m 0 min 0 min 177 W/m 16,1 km/h (3 Bft) 100,00 %
26.05.2021 16:06 15,2 C 14,4 C 11,7 C 71 % 1011,3 hPa 0,0 l/m 0 min 0 min 141 W/m 16,1 km/h (3 Bft) 95,65 %
26.05.2021 16:08 15,0 C 14,4 C 11,7 C 73 % 1011,4 hPa 0,0 l/m 0 min 0 min 120 W/m 9,7 km/h (2 Bft) 97,87 %
26.05.2021 16:10 14,9 C 14,4 C 11,7 C 73 % 1011,4 hPa 0,0 l/m 0 min 0 min 106 W/m 9,7 km/h (2 Bft) 95,74 %
26.05.2021 16:12 14,8 C 14,4 C 11,7 C 73 % 1011,3 hPa 0,0 l/m 0 min 0 min 97 W/m 16,1 km/h (3 Bft) 95,74 %
26.05.2021 16:14 14,7 C 14,4 C 11,7 C 72 % 1011,3 hPa 0,0 l/m 0 min 0 min 104 W/m 22,5 km/h (4 Bft) 97,87 %
26.05.2021 16:16 14,6 C 14,4 C 11,7 C 71 % 1011,3 hPa 0,0 l/m 0 min 0 min 152 W/m 12,9 km/h (3 Bft) 97,87 %
26.05.2021 16:18 14,6 C 14,4 C 12,3 C 71 % 1011,4 hPa 0,0 l/m 0 min 0 min 194 W/m 16,1 km/h (3 Bft) 97,83 %
26.05.2021 16:20 14,6 C 14,4 C 12,3 C 70 % 1011,4 hPa 0,0 l/m 0 min 0 min 192 W/m 16,1 km/h (3 Bft) 97,87 %
26.05.2021 16:22 14,6 C 14,4 C 12,3 C 71 % 1011,4 hPa 0,0 l/m 0 min 0 min 182 W/m 16,1 km/h (3 Bft) 95,74 %
26.05.2021 16:24 14,5 C 14,4 C 12,3 C 69 % 1011,3 hPa 0,0 l/m 0 min 0 min 183 W/m 22,5 km/h (4 Bft) 97,87 %
26.05.2021 16:26 14,5 C 14,4 C 11,7 C 70 % 1011,3 hPa 0,0 l/m 0 min 2 min 209 W/m 16,1 km/h (3 Bft) 97,87 %
26.05.2021 16:28 14,5 C 14,4 C 11,7 C 70 % 1011,3 hPa 0,0 l/m 0 min 0 min 266 W/m 16,1 km/h (3 Bft) 97,87 %
26.05.2021 16:30 14,5 C 15,0 C 11,7 C 70 % 1011,2 hPa 0,0 l/m 0 min 0 min 312 W/m 12,9 km/h (3 Bft) 97,83 %
26.05.2021 16:32 14,6 C 16,7 C 12,3 C 69 % 1011,3 hPa 0,0 l/m 0 min 0 min 334 W/m 16,1 km/h (3 Bft) 95,74 %
26.05.2021 16:34 14,9 C 17,2 C 12,8 C 69 % 1011,4 hPa 0,0 l/m 2 min 0 min 367 W/m 19,3 km/h (3 Bft) 97,87 %
26.05.2021 16:36 15,0 C 16,1 C 12,8 C 69 % 1011,3 hPa 0,0 l/m 2 min 0 min 350 W/m 16,1 km/h (3 Bft) 100,00 %
26.05.2021 16:38 15,1 C 15,6 C 12,8 C 68 % 1011,3 hPa 0,0 l/m 0 min 0 min 273 W/m 22,5 km/h (4 Bft) 97,87 %
26.05.2021 16:40 15,1 C 15,6 C 12,8 C 68 % 1011,3 hPa 0,0 l/m 0 min 0 min 277 W/m 22,5 km/h (4 Bft) 95,74 %
26.05.2021 16:42 15,1 C 15,6 C 12,8 C 68 % 1011,3 hPa 0,0 l/m 0 min 0 min 293 W/m 12,9 km/h (3 Bft) 97,83 %
26.05.2021 16:44 15,1 C 15,6 C 12,8 C 68 % 1011,3 hPa 0,0 l/m 0 min 0 min 317 W/m 25,7 km/h (4 Bft) 97,87 %
26.05.2021 16:46 15,0 C 15,6 C 12,3 C 68 % 1011,4 hPa 0,0 l/m 2 min 0 min 367 W/m 32,2 km/h (5 Bft) 95,74 %
26.05.2021 16:48 15,0 C 15,6 C 12,8 C 69 % 1011,3 hPa 0,0 l/m 2 min 0 min 439 W/m 19,3 km/h (3 Bft) 95,74 %
26.05.2021 16:50 15,0 C 15,6 C 12,8 C 69 % 1011,3 hPa 0,0 l/m 2 min 0 min 414 W/m 16,1 km/h (3 Bft) 95,74 %
26.05.2021 16:52 15,1 C 16,7 C 12,8 C 70 % 1011,3 hPa 0,0 l/m 2 min 0 min 468 W/m 22,5 km/h (4 Bft) 93,62 %
26.05.2021 16:54 15,1 C 17,8 C 13,4 C 69 % 1011,2 hPa 0,0 l/m 2 min 0 min 476 W/m 12,9 km/h (3 Bft) 95,65 %
26.05.2021 16:56 15,3 C 18,3 C 13,4 C 69 % 1011,2 hPa 0,0 l/m 2 min 0 min 644 W/m 12,9 km/h (3 Bft) 95,74 %
26.05.2021 16:58 15,5 C 18,9 C 13,4 C 68 % 1011,2 hPa 0,0 l/m 2 min 0 min 724 W/m 16,1 km/h (3 Bft) 95,74 %
26.05.2021 17:00 15,6 C 17,2 C 13,4 C 68 % 1011,3 hPa 0,0 l/m 2 min 0 min 649 W/m 16,1 km/h (3 Bft) 95,74 %
26.05.2021 17:02 15,6 C 16,1 C 13,4 C 68 % 1011,2 hPa 0,0 l/m 0 min 0 min 183 W/m 19,3 km/h (3 Bft) 93,62 %
26.05.2021 17:04 15,6 C 15,6 C 12,8 C 68 % 1011,3 hPa 0,0 l/m 0 min 0 min 116 W/m 16,1 km/h (3 Bft) 95,65 %
26.05.2021 17:06 15,5 C 15,0 C 12,8 C 69 % 1011,3 hPa 0,0 l/m 0 min 0 min 106 W/m 19,3 km/h (3 Bft) 95,74 %
26.05.2021 17:08 15,4 C 15,0 C 12,3 C 68 % 1011,3 hPa 0,0 l/m 0 min 0 min 130 W/m 22,5 km/h (4 Bft) 97,87 %
26.05.2021 17:10 15,3 C 14,4 C 12,3 C 69 % 1011,3 hPa 0,0 l/m 0 min 0 min 120 W/m 12,9 km/h (3 Bft) 93,62 %
26.05.2021 17:12 15,2 C 14,4 C 12,3 C 70 % 1011,3 hPa 0,0 l/m 0 min 0 min 116 W/m 16,1 km/h (3 Bft) 95,74 %
26.05.2021 17:14 15,0 C 14,4 C 11,7 C 70 % 1011,3 hPa 0,0 l/m 0 min 0 min 130 W/m 19,3 km/h (3 Bft) 95,74 %
26.05.2021 17:16 14,9 C 14,4 C 11,7 C 68 % 1011,4 hPa 0,0 l/m 0 min 0 min 195 W/m 38,6 km/h (5 Bft) 97,83 %
26.05.2021 17:18 14,9 C 15,6 C 12,3 C 69 % 1011,4 hPa 0,0 l/m 2 min 0 min 300 W/m 29,0 km/h (5 Bft) 97,87 %
26.05.2021 17:20 14,9 C 15,6 C 12,3 C 69 % 1011,3 hPa 0,0 l/m 0 min 0 min 277 W/m 19,3 km/h (3 Bft) 95,74 %
26.05.2021 17:22 14,9 C 15,0 C 12,3 C 69 % 1011,3 hPa 0,0 l/m 0 min 0 min 259 W/m 25,7 km/h (4 Bft) 95,74 %
26.05.2021 17:24 14,9 C 15,6 C 12,3 C 69 % 1011,3 hPa 0,0 l/m 0 min 0 min 278 W/m 19,3 km/h (3 Bft) 91,49 %
26.05.2021 17:26 14,9 C 15,0 C 12,3 C 68 % 1011,3 hPa 0,0 l/m 0 min 0 min 243 W/m 22,5 km/h (4 Bft) 95,74 %
26.05.2021 17:28 14,9 C 15,6 C 12,3 C 67 % 1011,3 hPa 0,0 l/m 0 min 0 min 262 W/m 25,7 km/h (4 Bft) 93,48 %
26.05.2021 17:30 15,0 C 15,6 C 12,3 C 66 % 1011,3 hPa 0,0 l/m 0 min 0 min 265 W/m 25,7 km/h (4 Bft) 97,87 %
26.05.2021 17:32 15,0 C 15,0 C 12,3 C 66 % 1011,3 hPa 0,0 l/m 0 min 0 min 191 W/m 19,3 km/h (3 Bft) 91,49 %
26.05.2021 17:34 15,0 C 14,4 C 12,3 C 66 % 1011,4 hPa 0,0 l/m 0 min 0 min 142 W/m 19,3 km/h (3 Bft) 95,74 %
26.05.2021 17:36 14,9 C 14,4 C 12,3 C 66 % 1011,4 hPa 0,0 l/m 0 min 0 min 121 W/m 16,1 km/h (3 Bft) 97,87 %
26.05.2021 17:38 14,9 C 14,4 C 11,7 C 67 % 1011,4 hPa 0,0 l/m 0 min 0 min 116 W/m 19,3 km/h (3 Bft) 97,87 %
26.05.2021 17:40 14,8 C 14,4 C 11,7 C 68 % 1011,3 hPa 0,0 l/m 0 min 0 min 160 W/m 19,3 km/h (3 Bft) 97,83 %
26.05.2021 17:42 14,7 C 14,4 C 11,7 C 68 % 1011,4 hPa 0,0 l/m 0 min 0 min 210 W/m 19,3 km/h (3 Bft) 97,87 %
26.05.2021 17:44 14,7 C 15,0 C 12,3 C 69 % 1011,5 hPa 0,0 l/m 0 min 0 min 253 W/m 19,3 km/h (3 Bft) 95,74 %
26.05.2021 17:46 14,8 C 15,0 C 12,3 C 69 % 1011,5 hPa 0,0 l/m 0 min 0 min 243 W/m 22,5 km/h (4 Bft) 97,87 %
26.05.2021 17:48 14,8 C 14,4 C 12,3 C 69 % 1011,4 hPa 0,0 l/m 0 min 0 min 166 W/m 16,1 km/h (3 Bft) 97,87 %
26.05.2021 17:50 14,7 C 14,4 C 12,3 C 69 % 1011,4 hPa 0,0 l/m 0 min 0 min 149 W/m 19,3 km/h (3 Bft) 97,87 %
26.05.2021 17:52 14,6 C 14,4 C 11,7 C 70 % 1011,5 hPa 0,0 l/m 0 min 0 min 168 W/m 25,7 km/h (4 Bft) 95,65 %
26.05.2021 17:54 14,5 C 13,9 C 11,7 C 69 % 1011,7 hPa 0,0 l/m 0 min 0 min 159 W/m 35,4 km/h (5 Bft) 97,87 %
26.05.2021 17:56 14,5 C 13,9 C 11,7 C 70 % 1011,5 hPa 0,0 l/m 0 min 0 min 174 W/m 25,7 km/h (4 Bft) 95,74 %
26.05.2021 17:58 14,4 C 13,9 C 11,7 C 69 % 1011,5 hPa 0,0 l/m 0 min 0 min 204 W/m 22,5 km/h (4 Bft) 97,87 %
26.05.2021 18:00 14,4 C 14,4 C 11,7 C 70 % 1011,6 hPa 0,0 l/m 0 min 0 min 237 W/m 19,3 km/h (3 Bft) 97,87 %
26.05.2021 18:02 14,4 C 14,4 C 11,7 C 71 % 1011,5 hPa 0,0 l/m 0 min 0 min 241 W/m 16,1 km/h (3 Bft) 95,83 %
26.05.2021 18:04 14,4 C 14,4 C 11,7 C 71 % 1011,6 hPa 0,0 l/m 0 min 0 min 201 W/m 22,5 km/h (4 Bft) 97,83 %
26.05.2021 18:06 14,4 C 14,4 C 11,7 C 71 % 1011,6 hPa 0,0 l/m 0 min 0 min 184 W/m 16,1 km/h (3 Bft) 97,22 %
26.05.2021 18:08 14,4 C 14,4 C 11,7 C 71 % 1011,6 hPa 0,0 l/m 0 min 0 min 167 W/m 12,9 km/h (3 Bft) 97,87 %
26.05.2021 18:10 14,5 C 14,4 C 11,7 C 70 % 1011,6 hPa 0,0 l/m 0 min 0 min 150 W/m 16,1 km/h (3 Bft) 95,74 %
26.05.2021 18:12 14,5 C 14,4 C 11,7 C 71 % 1011,6 hPa 0,0 l/m 0 min 0 min 127 W/m 19,3 km/h (3 Bft) 95,74 %
26.05.2021 18:14 14,5 C 13,9 C 11,7 C 70 % 1011,6 hPa 0,0 l/m 0 min 0 min 110 W/m 32,2 km/h (5 Bft) 97,87 %
26.05.2021 18:16 14,4 C 13,9 C 11,7 C 70 % 1011,6 hPa 0,0 l/m 0 min 0 min 136 W/m 25,7 km/h (4 Bft) 97,87 %
26.05.2021 18:18 14,4 C 14,4 C 11,1 C 70 % 1011,6 hPa 0,0 l/m 0 min 0 min 222 W/m 38,6 km/h (5 Bft) 100,00 %
26.05.2021 18:20 14,4 C 15,0 C 11,7 C 70 % 1011,6 hPa 0,0 l/m 2 min 0 min 277 W/m 19,3 km/h (3 Bft) 97,87 %
26.05.2021 18:22 14,4 C 14,4 C 11,7 C 70 % 1011,6 hPa 0,0 l/m 0 min 0 min 217 W/m 19,3 km/h (3 Bft) 97,87 %
26.05.2021 18:24 14,5 C 14,4 C 11,7 C 70 % 1011,6 hPa 0,0 l/m 0 min 0 min 168 W/m 19,3 km/h (3 Bft) 100,00 %
26.05.2021 18:26 14,4 C 14,4 C 11,7 C 69 % 1011,6 hPa 0,0 l/m 0 min 0 min 132 W/m 19,3 km/h (3 Bft) 100,00 %
26.05.2021 18:28 14,4 C 14,4 C 11,7 C 70 % 1011,7 hPa 0,0 l/m 0 min 0 min 140 W/m 16,1 km/h (3 Bft) 100,00 %
26.05.2021 18:30 14,4 C 13,9 C 11,7 C 69 % 1011,7 hPa 0,0 l/m 0 min 0 min 140 W/m 16,1 km/h (3 Bft) 100,00 %
26.05.2021 18:32 14,4 C 14,4 C 11,7 C 69 % 1011,7 hPa 0,0 l/m 0 min 0 min 141 W/m 22,5 km/h (4 Bft) 100,00 %
26.05.2021 18:34 14,4 C 15,0 C 11,7 C 69 % 1011,7 hPa 0,0 l/m 0 min 0 min 176 W/m 25,7 km/h (4 Bft) 100,00 %
26.05.2021 18:36 14,5 C 17,2 C 12,3 C 69 % 1011,7 hPa 0,0 l/m 2 min 0 min 491 W/m 22,5 km/h (4 Bft) 100,00 %
26.05.2021 18:38 14,7 C 17,8 C 12,3 C 69 % 1011,7 hPa 0,0 l/m 2 min 0 min 416 W/m 16,1 km/h (3 Bft) 97,87 %
26.05.2021 18:40 14,9 C 17,2 C 12,8 C 69 % 1011,7 hPa 0,0 l/m 2 min 0 min 446 W/m 12,9 km/h (3 Bft) 97,87 %
26.05.2021 18:42 15,0 C 17,8 C 12,8 C 68 % 1011,7 hPa 0,0 l/m 2 min 0 min 350 W/m 22,5 km/h (4 Bft) 100,00 %
26.05.2021 18:44 15,1 C 17,8 C 12,8 C 67 % 1011,9 hPa 0,0 l/m 2 min 0 min 516 W/m 22,5 km/h (4 Bft) 100,00 %
26.05.2021 18:46 15,2 C 17,2 C 12,8 C 68 % 1011,7 hPa 0,0 l/m 2 min 0 min 331 W/m 29,0 km/h (5 Bft) 100,00 %
26.05.2021 18:48 15,3 C 16,7 C 12,8 C 67 % 1011,7 hPa 0,0 l/m 2 min 0 min 388 W/m 22,5 km/h (4 Bft) 100,00 %
26.05.2021 18:50 15,1 C 16,1 C 12,3 C 67 % 1011,8 hPa 0,0 l/m 2 min 0 min 198 W/m 22,5 km/h (4 Bft) 100,00 %
26.05.2021 18:52 15,1 C 15,0 C 12,3 C 67 % 1012,0 hPa 0,0 l/m 0 min 0 min 134 W/m 19,3 km/h (3 Bft) 100,00 %
26.05.2021 18:54 15,0 C 14,4 C 12,3 C 67 % 1011,8 hPa 0,0 l/m 0 min 0 min 102 W/m 19,3 km/h (3 Bft) 100,00 %
26.05.2021 18:56 14,9 C 14,4 C 11,7 C 67 % 1011,9 hPa 0,0 l/m 0 min 0 min 83 W/m 19,3 km/h (3 Bft) 100,00 %
26.05.2021 18:58 14,8 C 13,9 C 11,7 C 67 % 1012,0 hPa 0,0 l/m 0 min 0 min 92 W/m 12,9 km/h (3 Bft) 100,00 %
26.05.2021 19:00 14,6 C 13,9 C 11,7 C 68 % 1011,9 hPa 0,0 l/m 0 min 0 min 89 W/m 16,1 km/h (3 Bft) 93,62 %
26.05.2021 19:02 14,6 C 13,9 C 11,1 C 69 % 1012,0 hPa 0,0 l/m 0 min 0 min 76 W/m 25,7 km/h (4 Bft) 100,00 %
26.05.2021 19:04 14,5 C 13,9 C 11,1 C 68 % 1011,9 hPa 0,0 l/m 0 min 0 min 83 W/m 22,5 km/h (4 Bft) 100,00 %
26.05.2021 19:06 14,4 C 14,4 C 11,1 C 68 % 1011,9 hPa 0,0 l/m 0 min 0 min 112 W/m 19,3 km/h (3 Bft) 55,56 %
26.05.2021 19:08 14,4 C 15,0 C 11,1 C 67 % 1011,9 hPa 0,0 l/m 0 min 0 min 121 W/m 25,7 km/h (4 Bft) 100,00 %
26.05.2021 19:10 14,4 C 14,4 C 11,7 C 68 % 1011,8 hPa 0,0 l/m 2 min 0 min 164 W/m 19,3 km/h (3 Bft) 100,00 %
26.05.2021 19:12 14,4 C 13,9 C 11,1 C 67 % 1011,9 hPa 0,0 l/m 0 min 0 min 119 W/m 32,2 km/h (5 Bft) 100,00 %
26.05.2021 19:14 14,3 C 13,9 C 11,1 C 68 % 1011,9 hPa 0,0 l/m 0 min 0 min 84 W/m 19,3 km/h (3 Bft) 97,87 %
26.05.2021 19:16 14,2 C 13,9 C 11,1 C 68 % 1012,0 hPa 0,0 l/m 0 min 0 min 83 W/m 19,3 km/h (3 Bft) 100,00 %
26.05.2021 19:18 14,2 C 13,9 C 11,1 C 68 % 1012,0 hPa 0,0 l/m 0 min 0 min 95 W/m 25,7 km/h (4 Bft) 100,00 %
26.05.2021 19:20 14,2 C 13,9 C 11,1 C 68 % 1012,1 hPa 0,0 l/m 0 min 0 min 114 W/m 25,7 km/h (4 Bft) 100,00 %
26.05.2021 19:22 14,2 C 13,9 C 11,1 C 68 % 1012,1 hPa 0,0 l/m 0 min 0 min 120 W/m 19,3 km/h (3 Bft) 97,87 %
26.05.2021 19:24 14,2 C 13,9 C 11,1 C 68 % 1012,1 hPa 0,0 l/m 2 min 0 min 310 W/m 25,7 km/h (4 Bft) 97,87 %
26.05.2021 19:26 14,2 C 13,9 C 11,1 C 68 % 1012,1 hPa 0,0 l/m 0 min 0 min 132 W/m 22,5 km/h (4 Bft) 97,87 %
26.05.2021 19:28 14,2 C 13,9 C 11,1 C 68 % 1012,1 hPa 0,0 l/m 0 min 0 min 92 W/m 16,1 km/h (3 Bft) 95,65 %
26.05.2021 19:30 14,2 C 13,9 C 11,1 C 68 % 1012,2 hPa 0,0 l/m 0 min 0 min 74 W/m 19,3 km/h (3 Bft) 95,74 %
26.05.2021 19:32 14,2 C 13,9 C 11,1 C 68 % 1012,1 hPa 0,0 l/m 0 min 0 min 86 W/m 19,3 km/h (3 Bft) 93,62 %
26.05.2021 19:34 14,2 C 13,9 C 11,1 C 68 % 1012,2 hPa 0,0 l/m 0 min 0 min 131 W/m 19,3 km/h (3 Bft) 95,74 %
26.05.2021 19:36 14,2 C 13,9 C 11,1 C 68 % 1012,2 hPa 0,0 l/m 2 min 0 min 183 W/m 25,7 km/h (4 Bft) 95,74 %
26.05.2021 19:40 14,2 C 13,9 C 11,1 C 68 % 1012,2 hPa 0,0 l/m 0 min 0 min 96 W/m 16,1 km/h (3 Bft) 95,35 %
26.05.2021 19:42 14,1 C 13,3 C 11,1 C 68 % 1012,2 hPa 0,0 l/m 0 min 0 min 104 W/m 19,3 km/h (3 Bft) 95,74 %
26.05.2021 19:44 14,0 C 13,3 C 10,6 C 68 % 1012,2 hPa 0,0 l/m 0 min 0 min 118 W/m 19,3 km/h (3 Bft) 95,74 %
26.05.2021 19:46 14,0 C 13,3 C 10,6 C 69 % 1012,3 hPa 0,0 l/m 0 min 0 min 96 W/m 12,9 km/h (3 Bft) 93,62 %
26.05.2021 19:48 14,0 C 13,3 C 10,6 C 69 % 1012,3 hPa 0,0 l/m 0 min 0 min 82 W/m 25,7 km/h (4 Bft) 95,74 %
26.05.2021 19:50 14,0 C 13,3 C 10,6 C 69 % 1012,4 hPa 0,0 l/m 0 min 0 min 71 W/m 16,1 km/h (3 Bft) 95,74 %
26.05.2021 19:52 13,9 C 13,3 C 10,6 C 69 % 1012,4 hPa 0,0 l/m 0 min 0 min 63 W/m 16,1 km/h (3 Bft) 95,65 %
26.05.2021 19:54 13,9 C 13,3 C 10,6 C 70 % 1012,5 hPa 0,0 l/m 0 min 0 min 54 W/m 12,9 km/h (3 Bft) 95,74 %
26.05.2021 19:56 13,9 C 13,3 C 10,6 C 69 % 1012,4 hPa 0,0 l/m 0 min 0 min 54 W/m 12,9 km/h (3 Bft) 95,74 %
26.05.2021 19:58 13,8 C 13,3 C 10,6 C 69 % 1012,5 hPa 0,0 l/m 0 min 0 min 57 W/m 19,3 km/h (3 Bft) 95,74 %
26.05.2021 20:00 13,8 C 13,3 C 10,6 C 68 % 1012,5 hPa 0,0 l/m 0 min 0 min 59 W/m 19,3 km/h (3 Bft) 93,62 %
26.05.2021 20:02 13,7 C 13,3 C 10,6 C 68 % 1012,5 hPa 0,0 l/m 0 min 0 min 63 W/m 12,9 km/h (3 Bft) 93,62 %
26.05.2021 20:04 13,7 C 13,3 C 10,6 C 68 % 1012,5 hPa 0,0 l/m 0 min 0 min 62 W/m 12,9 km/h (3 Bft) 95,65 %
26.05.2021 20:06 13,6 C 13,3 C 10,6 C 68 % 1012,5 hPa 0,0 l/m 0 min 0 min 60 W/m 22,5 km/h (4 Bft) 95,74 %
26.05.2021 20:08 13,6 C 12,8 C 10,6 C 68 % 1012,5 hPa 0,0 l/m 0 min 0 min 57 W/m 19,3 km/h (3 Bft) 95,74 %
26.05.2021 20:10 13,6 C 12,8 C 10,6 C 68 % 1012,5 hPa 0,0 l/m 0 min 0 min 55 W/m 19,3 km/h (3 Bft) 97,87 %
26.05.2021 20:12 13,6 C 12,8 C 10,6 C 68 % 1012,6 hPa 0,0 l/m 0 min 0 min 58 W/m 12,9 km/h (3 Bft) 97,87 %
26.05.2021 20:14 13,6 C 12,8 C 10,6 C 68 % 1012,6 hPa 0,0 l/m 0 min 0 min 51 W/m 12,9 km/h (3 Bft) 97,87 %
26.05.2021 20:16 13,5 C 12,8 C 10,6 C 68 % 1012,6 hPa 0,0 l/m 0 min 0 min 45 W/m 16,1 km/h (3 Bft) 95,74 %
26.05.2021 20:18 13,5 C 12,8 C 10,6 C 68 % 1012,6 hPa 0,0 l/m 0 min 0 min 46 W/m 6,4 km/h (2 Bft) 97,83 %
26.05.2021 20:20 13,5 C 12,8 C 10,6 C 68 % 1012,7 hPa 0,0 l/m 0 min 0 min 47 W/m 19,3 km/h (3 Bft) 97,87 %
26.05.2021 20:22 13,5 C 12,8 C 10,6 C 68 % 1012,6 hPa 0,0 l/m 0 min 0 min 51 W/m 25,7 km/h (4 Bft) 97,87 %
26.05.2021 20:24 13,5 C 12,8 C 10,6 C 68 % 1012,6 hPa 0,0 l/m 0 min 0 min 53 W/m 19,3 km/h (3 Bft) 97,87 %
26.05.2021 20:26 13,5 C 12,8 C 10,6 C 68 % 1012,6 hPa 0,0 l/m 0 min 0 min 49 W/m 16,1 km/h (3 Bft) 97,87 %
26.05.2021 20:28 13,5 C 12,8 C 10,6 C 69 % 1012,7 hPa 0,0 l/m 0 min 0 min 44 W/m 9,7 km/h (2 Bft) 100,00 %
26.05.2021 20:30 13,5 C 12,8 C 10,6 C 69 % 1012,6 hPa 0,0 l/m 0 min 0 min 40 W/m 6,4 km/h (2 Bft) 100,00 %
26.05.2021 20:32 13,4 C 12,8 C 10,6 C 69 % 1012,7 hPa 0,0 l/m 0 min 0 min 38 W/m 22,5 km/h (4 Bft) 100,00 %
26.05.2021 20:34 13,4 C 12,8 C 10,0 C 69 % 1012,7 hPa 0,0 l/m 0 min 0 min 35 W/m 12,9 km/h (3 Bft) 95,74 %
26.05.2021 20:36 13,4 C 12,8 C 10,0 C 69 % 1012,7 hPa 0,0 l/m 0 min 0 min 33 W/m 22,5 km/h (4 Bft) 97,87 %
26.05.2021 20:38 13,4 C 12,8 C 10,0 C 69 % 1012,7 hPa 0,0 l/m 0 min 0 min 31 W/m 16,1 km/h (3 Bft) 97,87 %
26.05.2021 20:40 13,3 C 12,8 C 10,0 C 69 % 1012,6 hPa 0,0 l/m 0 min 0 min 25 W/m 16,1 km/h (3 Bft) 97,87 %
26.05.2021 20:42 13,3 C 12,8 C 10,0 C 69 % 1012,7 hPa 0,0 l/m 0 min 0 min 19 W/m 12,9 km/h (3 Bft) 95,65 %
26.05.2021 20:44 13,3 C 12,8 C 10,0 C 69 % 1012,7 hPa 0,0 l/m 0 min 0 min 14 W/m 19,3 km/h (3 Bft) 95,74 %
26.05.2021 20:46 13,3 C 12,8 C 10,0 C 69 % 1012,7 hPa 0,0 l/m 0 min 0 min 11 W/m 12,9 km/h (3 Bft) 95,74 %
26.05.2021 20:48 13,2 C 12,2 C 10,0 C 69 % 1012,6 hPa 0,0 l/m 0 min 0 min 9 W/m 25,7 km/h (4 Bft) 95,74 %
26.05.2021 20:50 13,2 C 12,2 C 10,0 C 69 % 1012,7 hPa 0,0 l/m 0 min 0 min 10 W/m 16,1 km/h (3 Bft) 97,87 %
26.05.2021 20:52 13,1 C 12,2 C 10,0 C 69 % 1012,8 hPa 0,0 l/m 0 min 0 min 8 W/m 16,1 km/h (3 Bft) 97,87 %
26.05.2021 20:54 13,1 C 12,2 C 10,0 C 70 % 1012,8 hPa 0,0 l/m 0 min 0 min 7 W/m 16,1 km/h (3 Bft) 95,74 %
26.05.2021 20:56 13,1 C 12,2 C 10,0 C 71 % 1012,8 hPa 0,0 l/m 0 min 0 min 8 W/m 16,1 km/h (3 Bft) 97,83 %
26.05.2021 20:58 13,0 C 12,2 C 10,0 C 71 % 1012,9 hPa 0,0 l/m 0 min 2 min 7 W/m 16,1 km/h (3 Bft) 97,87 %
26.05.2021 21:00 13,0 C 12,2 C 10,0 C 71 % 1012,8 hPa 0,0 l/m 0 min 0 min 6 W/m 12,9 km/h (3 Bft) 95,74 %
26.05.2021 21:02 13,0 C 12,2 C 10,0 C 71 % 1012,8 hPa 0,0 l/m 0 min 0 min 6 W/m 16,1 km/h (3 Bft) 97,87 %
26.05.2021 21:04 12,9 C 12,2 C 10,0 C 71 % 1012,9 hPa 0,0 l/m 0 min 0 min 3 W/m 16,1 km/h (3 Bft) 97,87 %
26.05.2021 21:06 12,9 C 12,2 C 9,5 C 71 % 1012,9 hPa 0,0 l/m 0 min 0 min 0 W/m 19,3 km/h (3 Bft) 97,83 %
26.05.2021 21:08 12,9 C 12,2 C 9,5 C 71 % 1012,8 hPa 0,0 l/m 0 min 0 min 0 W/m 16,1 km/h (3 Bft) 97,87 %
26.05.2021 21:10 12,9 C 12,2 C 9,5 C 71 % 1012,9 hPa 0,0 l/m 0 min 0 min 0 W/m 19,3 km/h (3 Bft) 95,74 %
26.05.2021 21:12 12,9 C 12,2 C 9,5 C 71 % 1012,9 hPa 0,0 l/m 0 min 0 min 0 W/m 9,7 km/h (2 Bft) 97,87 %
26.05.2021 21:14 12,9 C 12,2 C 9,5 C 71 % 1012,9 hPa 0,0 l/m 0 min 0 min 0 W/m 12,9 km/h (3 Bft) 95,74 %
26.05.2021 21:16 12,9 C 12,2 C 9,5 C 71 % 1012,9 hPa 0,0 l/m 0 min 0 min 0 W/m 19,3 km/h (3 Bft) 97,87 %
26.05.2021 21:18 12,8 C 12,2 C 9,5 C 71 % 1013,0 hPa 0,0 l/m 0 min 0 min 0 W/m 12,9 km/h (3 Bft) 95,65 %
26.05.2021 21:20 12,8 C 12,2 C 9,5 C 72 % 1013,0 hPa 0,0 l/m 0 min 0 min 0 W/m 19,3 km/h (3 Bft) 95,74 %
26.05.2021 21:22 12,8 C 12,2 C 9,5 C 72 % 1013,0 hPa 0,0 l/m 0 min 0 min 0 W/m 25,7 km/h (4 Bft) 100,00 %
26.05.2021 21:24 12,8 C 12,2 C 9,5 C 73 % 1013,0 hPa 0,0 l/m 0 min 0 min 0 W/m 22,5 km/h (4 Bft) 100,00 %
26.05.2021 21:26 12,7 C 11,7 C 8,9 C 75 % 1013,1 hPa 0,0 l/m 0 min 2 min 0 W/m 25,7 km/h (4 Bft) 97,87 %
26.05.2021 21:28 12,6 C 11,7 C 8,9 C 75 % 1013,2 hPa 0,0 l/m 0 min 2 min 0 W/m 25,7 km/h (4 Bft) 100,00 %
26.05.2021 21:30 12,5 C 11,7 C 8,9 C 76 % 1013,2 hPa 0,0 l/m 0 min 2 min 0 W/m 22,5 km/h (4 Bft) 100,00 %
26.05.2021 21:32 12,4 C 11,7 C 8,9 C 78 % 1013,2 hPa 0,0 l/m 0 min 2 min 0 W/m 9,7 km/h (2 Bft) 100,00 %
26.05.2021 21:34 12,4 C 11,1 C 8,4 C 79 % 1013,4 hPa 0,0 l/m 0 min 0 min 0 W/m 12,9 km/h (3 Bft) 100,00 %
26.05.2021 21:36 12,3 C 11,1 C 8,4 C 80 % 1013,3 hPa 0,0 l/m 0 min 2 min 0 W/m 16,1 km/h (3 Bft) 100,00 %
26.05.2021 21:38 12,2 C 11,1 C 8,4 C 81 % 1013,3 hPa 0,0 l/m 0 min 2 min 0 W/m 12,9 km/h (3 Bft) 100,00 %
26.05.2021 21:40 12,1 C 11,1 C 8,4 C 82 % 1013,4 hPa 0,0 l/m 0 min 2 min 0 W/m 6,4 km/h (2 Bft) 100,00 %
26.05.2021 21:42 12,0 C 11,1 C 8,4 C 82 % 1013,3 hPa 0,0 l/m 0 min 0 min 0 W/m 6,4 km/h (2 Bft) 97,83 %
26.05.2021 21:44 11,9 C 11,1 C 8,4 C 83 % 1013,3 hPa 0,0 l/m 0 min 0 min 0 W/m 6,4 km/h (2 Bft) 100,00 %
26.05.2021 21:46 11,9 C 11,1 C 8,4 C 83 % 1013,3 hPa 0,0 l/m 0 min 2 min 0 W/m 16,1 km/h (3 Bft) 97,87 %
26.05.2021 21:48 11,8 C 11,1 C 8,4 C 83 % 1013,4 hPa 0,0 l/m 0 min 0 min 0 W/m 6,4 km/h (2 Bft) 97,87 %
26.05.2021 21:50 11,8 C 11,1 C 8,4 C 84 % 1013,4 hPa 0,0 l/m 0 min 0 min 0 W/m 16,1 km/h (3 Bft) 100,00 %
26.05.2021 21:52 11,7 C 11,1 C 8,4 C 84 % 1013,4 hPa 0,0 l/m 0 min 2 min 0 W/m 12,9 km/h (3 Bft) 100,00 %
26.05.2021 21:54 11,6 C 10,6 C 8,4 C 84 % 1013,5 hPa 0,0 l/m 0 min 2 min 0 W/m 16,1 km/h (3 Bft) 100,00 %
26.05.2021 21:56 11,6 C 10,6 C 7,8 C 85 % 1013,4 hPa 0,0 l/m 0 min 2 min 0 W/m 6,4 km/h (2 Bft) 100,00 %
26.05.2021 21:58 11,6 C 10,6 C 7,8 C 85 % 1013,4 hPa 0,0 l/m 0 min 2 min 0 W/m 12,9 km/h (3 Bft) 100,00 %
26.05.2021 22:00 11,5 C 10,6 C 7,8 C 85 % 1013,4 hPa 0,0 l/m 0 min 2 min 0 W/m 6,4 km/h (2 Bft) 100,00 %
26.05.2021 22:02 11,5 C 10,6 C 7,8 C 86 % 1013,4 hPa 0,0 l/m 0 min 2 min 0 W/m 12,9 km/h (3 Bft) 95,83 %
26.05.2021 22:04 11,5 C 10,6 C 7,8 C 86 % 1013,5 hPa 0,0 l/m 0 min 2 min 0 W/m 9,7 km/h (2 Bft) 97,83 %
26.05.2021 22:06 11,4 C 10,6 C 7,8 C 86 % 1013,6 hPa 0,0 l/m 0 min 2 min 0 W/m 6,4 km/h (2 Bft) 97,87 %
26.05.2021 22:08 11,4 C 10,6 C 7,8 C 87 % 1013,6 hPa 0,0 l/m 0 min 2 min 0 W/m 6,4 km/h (2 Bft) 100,00 %
26.05.2021 22:10 11,4 C 10,6 C 7,8 C 87 % 1013,6 hPa 0,0 l/m 0 min 2 min 0 W/m 22,5 km/h (4 Bft) 100,00 %
26.05.2021 22:12 11,3 C 10,6 C 7,8 C 87 % 1013,6 hPa 0,0 l/m 0 min 2 min 0 W/m 9,7 km/h (2 Bft) 100,00 %
26.05.2021 22:14 11,3 C 10,6 C 7,8 C 87 % 1013,6 hPa 0,0 l/m 0 min 2 min 0 W/m 19,3 km/h (3 Bft) 100,00 %
26.05.2021 22:16 11,2 C 10,6 C 7,8 C 87 % 1013,5 hPa 0,0 l/m 0 min 2 min 0 W/m 16,1 km/h (3 Bft) 97,87 %
26.05.2021 22:18 11,1 C 10,6 C 7,8 C 88 % 1013,6 hPa 0,0 l/m 0 min 2 min 0 W/m 16,1 km/h (3 Bft) 100,00 %
26.05.2021 22:20 11,1 C 10,6 C 7,8 C 88 % 1013,6 hPa 0,0 l/m 0 min 2 min 0 W/m 19,3 km/h (3 Bft) 97,87 %
26.05.2021 22:22 11,1 C 10,6 C 7,8 C 88 % 1013,6 hPa 0,0 l/m 0 min 0 min 0 W/m 9,7 km/h (2 Bft) 97,87 %
26.05.2021 22:24 11,1 C 10,6 C 7,8 C 88 % 1013,6 hPa 0,0 l/m 0 min 0 min 0 W/m 12,9 km/h (3 Bft) 97,87 %
26.05.2021 22:26 11,1 C 10,6 C 7,8 C 88 % 1013,6 hPa 0,0 l/m 0 min 0 min 0 W/m 12,9 km/h (3 Bft) 95,65 %
26.05.2021 22:28 11,1 C 10,6 C 7,8 C 88 % 1013,6 hPa 0,0 l/m 0 min 0 min 0 W/m 12,9 km/h (3 Bft) 97,87 %
26.05.2021 22:30 11,1 C 10,6 C 7,8 C 88 % 1013,6 hPa 0,0 l/m 0 min 0 min 0 W/m 9,7 km/h (2 Bft) 97,87 %
26.05.2021 22:32 11,1 C 10,6 C 7,8 C 89 % 1013,6 hPa 0,0 l/m 0 min 0 min 0 W/m 12,9 km/h (3 Bft) 97,92 %
26.05.2021 22:34 11,1 C 10,6 C 8,4 C 89 % 1013,6 hPa 0,0 l/m 0 min 0 min 0 W/m 12,9 km/h (3 Bft) 97,87 %
26.05.2021 22:36 11,1 C 10,6 C 8,4 C 89 % 1013,6 hPa 0,0 l/m 0 min 0 min 0 W/m 9,7 km/h (2 Bft) 97,87 %
26.05.2021 22:38 11,1 C 10,6 C 8,4 C 88 % 1013,7 hPa 0,0 l/m 0 min 0 min 0 W/m 6,4 km/h (2 Bft) 97,87 %
26.05.2021 22:40 11,1 C 10,6 C 8,4 C 88 % 1013,7 hPa 0,0 l/m 0 min 0 min 0 W/m 9,7 km/h (2 Bft) 97,83 %
26.05.2021 22:42 11,1 C 10,6 C 8,4 C 88 % 1013,7 hPa 0,0 l/m 0 min 0 min 0 W/m 6,4 km/h (2 Bft) 95,74 %
26.05.2021 22:44 11,1 C 10,6 C 8,4 C 88 % 1013,7 hPa 0,0 l/m 0 min 0 min 0 W/m 12,9 km/h (3 Bft) 97,87 %
26.05.2021 22:46 11,1 C 10,6 C 8,4 C 88 % 1013,7 hPa 0,0 l/m 0 min 0 min 0 W/m 9,7 km/h (2 Bft) 97,87 %
26.05.2021 22:48 11,1 C 10,6 C 8,4 C 88 % 1013,7 hPa 0,0 l/m 0 min 0 min 0 W/m 9,7 km/h (2 Bft) 97,87 %
26.05.2021 22:50 11,1 C 10,6 C 8,4 C 88 % 1013,7 hPa 0,0 l/m 0 min 0 min 0 W/m 16,1 km/h (3 Bft) 97,87 %
26.05.2021 22:52 11,1 C 10,6 C 8,4 C 88 % 1013,7 hPa 0,0 l/m 0 min 0 min 0 W/m 6,4 km/h (2 Bft) 95,65 %
26.05.2021 22:54 11,1 C 10,6 C 8,4 C 88 % 1013,8 hPa 0,0 l/m 0 min 0 min 0 W/m 19,3 km/h (3 Bft) 97,87 %
26.05.2021 22:56 11,1 C 10,6 C 8,4 C 88 % 1013,8 hPa 0,0 l/m 0 min 0 min 0 W/m 9,7 km/h (2 Bft) 97,87 %
26.05.2021 22:58 11,1 C 10,6 C 8,4 C 88 % 1013,8 hPa 0,0 l/m 0 min 0 min 0 W/m 9,7 km/h (2 Bft) 97,87 %
26.05.2021 23:00 11,1 C 10,6 C 8,4 C 88 % 1013,9 hPa 0,0 l/m 0 min 0 min 0 W/m 12,9 km/h (3 Bft) 93,62 %
26.05.2021 23:02 11,1 C 10,6 C 8,4 C 88 % 1013,9 hPa 0,0 l/m 0 min 0 min 0 W/m 12,9 km/h (3 Bft) 95,83 %
26.05.2021 23:04 11,2 C 10,6 C 8,4 C 88 % 1013,9 hPa 0,0 l/m 0 min 0 min 0 W/m 12,9 km/h (3 Bft) 95,65 %
26.05.2021 23:06 11,2 C 10,6 C 8,4 C 88 % 1013,9 hPa 0,0 l/m 0 min 0 min 0 W/m 9,7 km/h (2 Bft) 95,74 %
26.05.2021 23:08 11,2 C 10,6 C 8,4 C 87 % 1013,9 hPa 0,0 l/m 0 min 0 min 0 W/m 12,9 km/h (3 Bft) 97,92 %
26.05.2021 23:10 11,3 C 10,6 C 8,4 C 87 % 1013,9 hPa 0,0 l/m 0 min 0 min 0 W/m 12,9 km/h (3 Bft) 100,00 %
26.05.2021 23:12 11,3 C 10,6 C 8,4 C 87 % 1014,0 hPa 0,0 l/m 0 min 0 min 0 W/m 6,4 km/h (2 Bft) 97,83 %
26.05.2021 23:14 11,3 C 10,6 C 8,4 C 88 % 1014,0 hPa 0,0 l/m 0 min 0 min 0 W/m 12,9 km/h (3 Bft) 100,00 %
26.05.2021 23:16 11,3 C 10,6 C 7,8 C 88 % 1014,0 hPa 0,0 l/m 0 min 0 min 0 W/m 22,5 km/h (4 Bft) 97,87 %
26.05.2021 23:18 11,3 C 10,6 C 7,8 C 88 % 1014,1 hPa 0,0 l/m 0 min 0 min 0 W/m 12,9 km/h (3 Bft) 97,87 %
26.05.2021 23:20 11,3 C 10,6 C 7,8 C 88 % 1014,0 hPa 0,0 l/m 0 min 0 min 0 W/m 12,9 km/h (3 Bft) 97,87 %
26.05.2021 23:22 11,2 C 10,6 C 7,8 C 88 % 1014,1 hPa 0,0 l/m 0 min 0 min 0 W/m 9,7 km/h (2 Bft) 95,35 %
26.05.2021 23:24 11,2 C 10,6 C 7,8 C 89 % 1014,1 hPa 0,0 l/m 0 min 0 min 0 W/m 6,4 km/h (2 Bft) 98,00 %
26.05.2021 23:26 11,1 C 10,0 C 7,8 C 89 % 1014,1 hPa 0,0 l/m 0 min 2 min 0 W/m 12,9 km/h (3 Bft) 97,87 %
26.05.2021 23:28 11,1 C 10,0 C 7,8 C 89 % 1014,1 hPa 0,0 l/m 0 min 2 min 0 W/m 12,9 km/h (3 Bft) 97,83 %
26.05.2021 23:30 11,0 C 10,0 C 7,8 C 90 % 1014,1 hPa 0,0 l/m 0 min 0 min 0 W/m 12,9 km/h (3 Bft) 97,87 %
26.05.2021 23:32 11,0 C 10,0 C 7,8 C 90 % 1014,1 hPa 0,0 l/m 0 min 0 min 0 W/m 16,1 km/h (3 Bft) 95,83 %
26.05.2021 23:34 11,0 C 10,0 C 7,8 C 90 % 1014,1 hPa 0,0 l/m 0 min 2 min 0 W/m 16,1 km/h (3 Bft) 97,87 %
26.05.2021 23:36 10,9 C 10,0 C 7,3 C 90 % 1014,1 hPa 0,0 l/m 0 min 2 min 0 W/m 19,3 km/h (3 Bft) 97,83 %
26.05.2021 23:38 10,9 C 10,0 C 7,3 C 90 % 1014,3 hPa 0,0 l/m 0 min 2 min 0 W/m 12,9 km/h (3 Bft) 97,87 %
26.05.2021 23:40 10,9 C 10,0 C 7,3 C 91 % 1014,2 hPa 0,0 l/m 0 min 2 min 0 W/m 16,1 km/h (3 Bft) 97,87 %
26.05.2021 23:42 10,8 C 10,0 C 7,3 C 91 % 1014,1 hPa 0,0 l/m 0 min 2 min 0 W/m 6,4 km/h (2 Bft) 97,87 %
26.05.2021 23:44 10,8 C 10,0 C 7,3 C 91 % 1014,1 hPa 0,0 l/m 0 min 2 min 0 W/m 12,9 km/h (3 Bft) 95,74 %
26.05.2021 23:46 10,8 C 10,0 C 7,3 C 91 % 1014,1 hPa 0,0 l/m 0 min 0 min 0 W/m 6,4 km/h (2 Bft) 91,49 %
26.05.2021 23:48 10,8 C 10,0 C 7,8 C 92 % 1014,2 hPa 0,0 l/m 0 min 0 min 0 W/m 6,4 km/h (2 Bft) 95,65 %
26.05.2021 23:50 10,8 C 10,0 C 7,8 C 92 % 1014,2 hPa 0,0 l/m 0 min 0 min 0 W/m 12,9 km/h (3 Bft) 95,74 %
26.05.2021 23:52 10,8 C 10,0 C 7,8 C 92 % 1014,2 hPa 0,0 l/m 0 min 0 min 0 W/m 9,7 km/h (2 Bft) 95,74 %
26.05.2021 23:54 10,8 C 10,0 C 7,8 C 92 % 1014,2 hPa 0,0 l/m 0 min 0 min 0 W/m 9,7 km/h (2 Bft) 95,74 %
26.05.2021 23:56 10,8 C 10,0 C 7,8 C 92 % 1014,2 hPa 0,0 l/m 0 min 0 min 0 W/m 9,7 km/h (2 Bft) 95,74 %
26.05.2021 23:58 10,8 C 10,0 C 7,8 C 92 % 1014,2 hPa 0,0 l/m 0 min 0 min 0 W/m 9,7 km/h (2 Bft) 95,74 %
_ Min-Zeit 05:32 02:12 02:56 15:34 15:24 - - - - 11:28 12:02
Minimum _ 8,9 C 8,3 C 6,7 C 66 % 1010,7 hPa - - - - 0,0 km/h (0 Bft) 35,48 %
_ Max-Zeit 15:46 14:44 12:24 05:30 00:02 00:00 15:53 08:22 12:22 15:48 01:38
Maximum _ 16,9 C 20,6 C 22,3 C 92 % 1015,1 hPa 0,0 l/m 5 min 2 min 1136 W/m 38,6 km/h
N (5 Bft)
100,00 %
Durchschnitt _ 12,0 C 12,0 C 10,0 C 81 % 1012,4 hPa #0,0 l/m #3:55 h #1:12 h 270 W/m 14,6 km/h (3 Bft) 97,27 %
© 2021 W. Hausmann